GFSSE_925_spd_018.txt.gz
Wind_Speed
17 16 13 11 11 11 11 11 13 13 13 12 11 10 10 10 9 8 7 7 6 7 8 9 9 9 10 12 12 12 11 8 9 9 8 8 8 6 5 6 7 5 7
21 15 13 14 13 12 12 12 11 11 11 11 11 11 10 10 8 8 7 6 7 8 9 9 10 12 13 13 13 12 11 10 9 9 10 8 8 4 5 2 10 7 6
20 17 15 15 14 13 12 12 12 12 12 12 11 10 10 9 7 7 8 8 8 9 9 10 9 10 11 12 12 12 12 11 10 10 11 11 8 5 1 1 4 7 6
26 19 17 16 14 13 12 12 12 12 10 10 9 8 8 6 6 7 7 8 9 9 9 8 8 9 10 10 11 11 11 11 12 13 13 12 10 9 4 3 2 4 6
22 19 19 16 15 13 12 11 11 10 9 9 8 7 7 6 6 7 7 7 8 8 8 8 9 9 9 9 11 12 11 11 11 12 14 16 13 2 18 5 3 2 3
20 19 18 17 15 13 12 10 10 9 9 8 7 7 6 6 6 6 7 8 8 9 10 10 10 10 11 11 11 11 12 11 11 10 14 16 8 3 6 3 1 4 1
18 16 16 15 14 12 10 10 9 8 8 7 6 6 6 6 6 7 7 8 8 8 9 9 9 10 10 11 11 12 12 12 10 9 10 13 6 5 6 5 3 4 5
19 13 15 13 12 11 10 9 9 8 8 8 7 6 6 6 6 7 7 7 7 8 9 8 9 9 9 10 10 10 11 11 11 9 9 11 6 2 4 5 4 6 7
16 14 12 11 11 10 10 8 8 7 8 7 7 7 6 7 10 10 7 9 9 9 9 9 10 10 10 10 10 10 11 9 8 10 13 8 8 11 12 11 6 6 9
15 14 14 6 7 6 8 8 8 7 8 8 9 11 7 5 7 8 8 12 13 12 12 12 12 13 12 10 7 9 13 7 4 10 12 4 6 9 12 10 8 9 11
14 10 12 11 9 6 5 8 7 7 7 6 7 10 7 8 7 5 10 10 11 13 16 10 11 15 11 9 10 7 10 8 9 9 7 6 7 9 11 11 11 10 11
13 11 10 10 7 5 6 1 5 3 6 5 5 6 10 9 3 8 7 9 8 14 14 8 15 13 12 12 13 11 12 12 13 10 15 13 10 13 12 11 11 11 10
12 11 16 10 6 2 6 4 6 5 6 3 8 5 6 7 7 8 11 11 15 15 11 15 15 15 9 17 13 15 15 15 14 15 14 12 13 14 12 10 11 12 12
16 17 17 14 8 5 3 6 7 7 6 4 7 5 5 5 5 7 8 9 10 11 12 11 13 13 16 13 13 14 14 15 15 17 15 13 15 14 13 11 11 12 12
18 18 18 18 13 7 3 4 3 3 4 3 3 3 2 3 5 5 7 9 11 13 13 12 14 16 16 15 16 14 12 15 17 18 15 17 15 16 14 12 11 11 12
15 16 15 19 15 12 4 3 2 4 2 3 2 2 3 3 5 6 8 10 12 14 15 17 19 19 18 17 17 17 18 16 18 18 17 17 18 16 15 14 12 9 10
12 9 16 10 18 12 6 4 2 3 3 0 1 2 3 3 6 8 9 11 13 15 17 19 20 19 21 21 21 20 19 22 22 21 21 19 20 20 17 16 15 13 12
11 5 3 12 10 10 5 5 3 2 2 3 7 6 7 4 6 9 11 14 16 18 19 20 22 22 21 22 23 23 22 23 22 22 22 21 22 21 21 19 17 16 14
4 6 4 9 8 8 8 2 4 4 4 7 6 7 1 5 8 10 15 17 20 21 20 22 22 22 21 22 24 25 26 26 27 26 24 26 26 25 19 23 23 21 18
10 6 4 12 10 7 6 1 3 6 6 7 6 4 7 10 7 11 15 19 21 21 22 22 23 24 24 25 26 27 30 32 33 27 26 27 26 28 30 22 24 24 22
9 17 15 13 10 4 3 4 8 11 11 11 9 11 8 11 12 14 17 17 21 22 23 25 26 28 27 25 27 25 27 30 32 34 35 31 29 30 31 35 27 27 24
14 13 13 12 10 9 8 5 4 7 6 7 10 6 11 13 14 18 20 21 20 22 23 23 25 27 24 22 22 21 10 19 23 30 31 35 36 38 36 37 36 27 24
15 13 13 11 10 10 9 8 8 9 10 11 12 17 14 15 20 20 19 23 22 20 20 22 28 26 23 22 20 17 9 10 13 22 31 30 23 29 24 23 33 37 35
13 11 9 7 8 8 9 9 11 14 16 17 15 17 18 19 17 21 23 24 23 22 23 24 20 23 19 16 16 14 20 19 4 8 15 21 25 23 28 31 23 30 34
10 8 6 6 4 3 6 7 8 10 13 16 18 18 20 16 22 23 24 25 24 26 24 19 11 13 14 15 16 19 20 24 15 5 6 10 21 21 16 13 19 22 11
8 5 6 8 10 10 2 7 9 11 13 16 17 18 19 22 22 21 22 24 23 16 12 12 11 10 7 8 13 15 9 4 5 5 3 9 9 15 19 14 9 17 21

GFSSE_925_spd_021.txt.gz
Wind_Speed
19 19 18 17 17 17 16 16 16 16 16 15 15 15 14 13 13 13 12 12 12 12 12 12 10 11 11 11 11 10 11 11 9 9 6 5 3 4 3 4 2 5 6
22 19 19 19 17 17 17 17 17 17 15 14 14 13 13 13 13 12 11 11 11 11 11 10 10 11 11 11 11 10 9 10 10 9 8 8 4 3 3 6 6 5 6
23 22 21 20 19 18 17 16 16 16 15 14 14 13 12 11 11 11 11 10 11 10 10 10 11 10 10 10 10 11 11 11 10 9 7 7 9 5 7 5 3 3 3
24 23 21 20 19 18 17 16 16 16 14 14 13 12 11 11 11 11 10 11 11 10 10 11 11 11 10 11 11 11 11 11 11 11 10 9 3 1 4 4 4 3 5
26 24 22 21 19 18 17 16 15 14 13 13 11 11 10 10 10 10 10 10 10 10 11 11 11 11 11 11 11 11 11 11 11 10 10 7 3 4 3 2 6 2 3
26 24 21 20 18 17 16 15 14 13 12 11 10 10 10 10 10 10 9 10 10 9 10 10 10 11 11 11 11 11 11 11 11 9 10 6 3 5 2 3 6 7 5
25 23 21 19 18 16 15 14 14 13 12 11 10 10 10 10 9 9 9 9 9 9 9 9 10 10 11 11 12 12 11 10 9 9 13 5 1 3 5 3 5 5 8
24 21 20 18 17 15 13 13 13 13 12 12 11 11 11 11 10 9 10 11 10 9 9 10 10 11 11 11 12 12 13 12 10 9 10 2 3 1 2 4 6 9 8
20 20 19 17 15 15 13 13 13 14 14 13 12 10 12 10 9 11 11 12 11 10 11 10 12 13 12 11 9 11 14 11 9 13 5 3 2 1 3 5 6 8 8
19 15 15 14 13 13 14 12 13 14 14 15 14 11 9 6 6 7 8 10 10 14 12 9 13 15 13 12 12 13 14 12 11 13 9 5 3 4 7 10 8 8 9
20 15 16 15 12 12 12 10 12 14 11 11 11 7 8 6 4 7 7 6 9 13 9 9 15 12 12 10 13 16 14 16 14 14 16 14 9 9 12 14 12 9 9
19 21 21 16 9 8 7 6 8 10 10 10 10 11 8 6 3 3 6 5 11 11 8 12 12 12 11 11 14 16 15 15 16 14 18 19 14 12 14 15 13 12 11
22 25 21 16 12 9 8 5 8 9 10 9 10 9 6 6 7 5 5 8 9 10 11 12 10 13 12 16 18 15 15 16 18 16 16 13 15 13 15 17 15 13 13
24 28 22 18 17 9 9 10 15 14 13 11 11 6 6 4 2 3 2 2 4 7 10 10 8 12 15 15 15 17 20 17 15 16 19 21 17 18 17 18 16 14 14
26 32 26 22 18 12 8 5 4 6 9 8 7 4 4 4 1 1 1 4 6 8 11 13 15 19 19 18 17 17 19 18 20 19 18 21 21 21 20 19 17 14 13
28 35 28 21 17 8 9 8 4 6 6 9 7 4 1 0 2 3 5 7 10 12 15 16 19 22 21 21 22 21 21 21 24 23 21 22 22 21 18 19 19 18 14
19 25 26 24 9 9 9 6 6 10 7 5 5 4 5 6 5 7 9 10 13 16 18 22 24 24 24 26 24 24 23 24 26 26 26 24 26 26 25 22 20 19 19
15 29 29 18 14 20 15 11 7 7 6 4 4 6 5 2 1 2 7 13 15 19 23 24 24 27 27 27 27 26 24 25 27 31 31 30 29 29 26 25 23 23 21
22 16 16 15 21 18 13 8 7 4 4 4 5 5 6 2 4 8 10 15 17 19 20 22 22 24 28 29 30 28 30 31 31 33 29 29 32 33 31 28 26 26 25
27 26 25 25 19 13 9 5 4 3 5 7 8 5 5 6 8 9 12 15 17 22 25 26 28 29 29 29 31 31 32 32 31 30 32 34 32 33 35 33 32 29 29
27 26 22 19 15 15 12 10 9 11 8 9 10 11 10 10 12 14 15 15 16 18 21 21 23 25 30 33 32 27 25 25 25 25 26 28 30 35 36 38 38 38 32
26 23 19 15 15 15 13 13 11 13 13 12 16 16 15 16 14 13 15 18 19 20 20 21 23 28 27 19 16 19 5 14 18 19 21 22 23 21 20 24 34 40 37
22 20 17 14 12 10 10 7 8 10 11 17 19 19 19 15 16 18 20 22 24 23 24 25 26 20 13 11 13 8 4 4 17 15 25 25 20 17 18 15 22 31 31
18 16 12 8 6 7 7 8 7 7 9 10 13 12 13 17 23 26 26 26 26 25 24 18 9 10 12 10 12 12 12 6 4 8 8 24 22 23 27 23 17 11 17
12 10 8 11 7 2 6 6 5 5 8 10 11 12 17 22 24 23 24 20 19 17 14 16 14 13 12 13 15 12 14 21 11 4 8 8 20 22 23 23 20 15 10
9 7 6 8 13 17 9 9 9 9 10 11 12 16 20 22 19 19 19 23 21 19 16 16 15 15 13 16 20 20 12 6 7 5 5 12 12 11 25 17 16 15 12

GFSSE_925_spd_024.txt.gz
Wind_Speed
19 20 19 19 18 18 19 18 18 18 17 17 17 16 16 15 14 14 13 12 11 11 10 9 9 9 9 9 9 9 10 9 8 7 6 5 3 4 4 3 1 2 3
26 22 20 19 19 18 18 18 18 18 18 17 17 15 15 14 13 12 11 10 10 10 11 10 10 11 11 10 9 9 9 9 9 7 7 6 0 4 5 4 2 1 2
27 22 20 20 19 19 19 19 19 18 17 16 15 13 13 12 11 11 10 10 10 10 10 10 10 9 10 10 11 11 9 8 9 8 6 7 6 5 3 4 2 2 3
27 24 22 21 20 19 19 18 18 17 16 14 13 13 12 11 11 11 11 11 11 12 11 11 11 11 12 11 12 11 10 9 9 8 5 5 6 2 4 5 7 4 5
27 25 22 20 20 19 19 18 16 15 14 13 12 12 11 11 11 11 11 11 10 11 11 11 11 11 11 11 12 11 11 12 11 8 7 5 2 3 5 5 3 4 6
27 24 22 21 20 18 17 15 15 14 13 12 12 11 11 11 11 10 11 10 10 10 10 11 11 11 11 12 12 12 12 12 11 8 4 4 4 3 5 2 5 7 8
26 24 21 19 18 16 16 15 15 14 13 12 11 11 12 11 10 11 12 10 10 9 9 10 11 11 11 11 11 11 11 12 11 9 7 2 6 3 3 5 6 8 11
27 23 20 18 17 16 16 15 14 13 13 13 13 13 12 13 13 13 12 11 11 10 10 11 12 13 12 12 10 11 13 12 11 11 4 1 4 4 5 6 6 9 11
24 23 21 20 17 15 14 14 15 15 14 13 13 13 11 11 11 11 11 11 13 10 11 12 14 14 13 12 13 14 14 13 14 12 7 4 4 5 5 4 6 9 11
24 23 21 18 16 14 15 15 16 16 16 15 12 10 9 8 8 8 6 7 9 8 8 10 11 11 12 11 14 18 16 14 11 13 13 7 6 6 8 9 8 9 11
25 23 21 17 15 14 15 15 15 14 13 12 9 8 5 5 4 4 3 5 6 6 5 9 9 9 10 9 14 16 18 16 15 14 13 12 12 11 11 11 13 12 12
27 25 21 18 15 13 14 12 12 12 12 10 10 7 5 3 2 2 2 3 4 5 6 8 8 9 10 13 14 13 16 17 16 15 16 12 11 11 12 13 15 15 14
30 28 24 20 16 12 9 12 12 11 12 11 8 7 5 3 4 3 1 2 3 6 9 10 10 9 13 17 16 16 16 17 17 17 16 14 14 15 15 16 14 15 14
31 30 25 21 18 15 13 10 13 11 12 13 11 9 7 7 4 3 1 2 5 8 11 12 12 15 19 21 21 20 19 18 18 18 18 17 18 17 17 18 19 18 17
35 32 27 22 16 14 15 14 13 13 16 13 13 6 6 6 3 2 2 4 7 10 12 13 16 20 22 23 22 22 23 24 23 22 21 21 20 19 19 19 19 19 18
28 32 27 24 18 14 12 10 11 16 13 14 10 8 6 3 3 3 4 6 7 10 13 16 19 20 21 22 24 23 24 24 24 26 27 27 25 23 22 22 23 22 20
34 34 31 27 13 11 13 7 8 8 8 9 10 9 7 4 2 4 5 6 10 12 15 18 19 19 20 22 24 25 25 24 25 27 26 24 31 31 27 26 24 23 22
39 37 33 24 10 15 10 8 6 10 7 4 5 9 6 5 4 2 5 8 11 14 17 20 22 24 26 28 30 31 29 29 29 28 28 30 29 27 33 32 30 27 24
36 36 29 19 10 13 12 7 9 7 1 2 4 6 6 4 6 8 11 12 13 15 17 18 20 24 26 30 31 29 33 30 27 25 25 27 30 30 31 31 37 34 29
24 25 18 15 16 10 9 10 9 14 14 13 12 12 11 10 10 10 11 12 14 16 17 19 20 22 25 30 31 31 27 26 30 28 27 24 23 23 24 26 31 40 37
34 31 25 22 16 13 11 15 15 19 23 19 16 12 11 10 12 14 16 18 19 20 20 21 24 26 30 26 23 23 23 25 18 20 18 25 24 21 18 17 19 27 39
27 25 22 20 18 17 16 15 13 10 14 15 10 10 11 12 14 16 19 20 21 23 25 26 24 21 17 15 12 17 5 19 10 27 29 28 22 23 21 21 22 18 25
22 19 19 17 15 12 10 9 8 7 7 8 10 11 14 15 17 20 22 21 24 24 21 18 15 13 11 10 12 8 4 4 15 8 30 15 29 28 28 29 24 21 19
17 16 13 11 10 10 8 7 7 7 6 6 6 8 12 17 20 21 18 19 20 20 20 16 12 12 12 9 10 11 10 8 4 10 6 23 15 29 26 23 22 18 19
13 12 12 12 9 6 6 7 7 9 8 4 4 9 14 17 18 16 15 19 19 16 15 14 15 11 12 13 14 12 12 14 10 4 8 5 21 21 17 18 17 15 13
10 10 10 12 11 7 6 6 5 6 5 5 8 12 14 14 12 11 15 19 14 11 13 13 12 17 21 20 18 20 17 10 8 7 5 14 13 13 24 19 13 16 15

GFSSE_925_spd_027.txt.gz
Wind_Speed
19 19 18 18 18 18 18 19 18 18 18 17 16 15 15 14 13 12 12 12 11 11 11 11 10 10 10 9 10 11 11 8 7 3 2 1 1 2 2 1 1 3 4
26 22 20 20 19 19 20 19 18 18 18 17 16 15 14 12 12 11 11 10 10 11 11 11 11 10 10 10 10 10 10 10 8 5 4 3 4 3 2 0 1 2 2
26 23 21 21 20 20 19 19 18 18 17 16 14 13 12 11 11 11 11 11 11 11 11 12 12 12 11 12 12 12 11 9 7 6 3 2 1 0 1 4 2 1 1
27 24 22 21 20 20 19 18 17 16 15 14 13 12 12 11 11 11 11 10 10 12 12 13 13 12 12 12 13 13 13 12 9 5 2 2 3 3 5 4 4 3 3
25 25 22 21 20 20 18 17 16 15 14 14 13 12 12 11 11 10 10 10 11 12 12 12 12 12 11 12 12 12 12 11 9 5 2 2 1 5 4 7 5 4 4
25 24 22 20 19 18 17 16 15 14 13 13 13 12 12 11 10 10 10 10 10 11 12 12 13 12 12 12 13 13 14 13 9 7 4 0 0 5 7 8 5 7 6
26 23 21 19 18 17 16 15 14 14 12 13 13 12 12 11 11 11 10 11 11 11 12 13 13 14 13 12 13 15 16 15 12 11 5 1 2 4 9 10 9 9 11
26 23 20 17 16 15 15 14 14 13 13 13 12 12 12 13 11 12 13 13 12 12 14 14 14 15 16 15 15 17 16 15 14 12 9 5 2 5 6 10 10 11 12
24 22 19 17 16 15 15 15 15 14 13 13 13 12 12 10 10 10 11 10 10 10 12 13 13 14 15 15 16 17 17 15 14 12 11 9 6 6 6 7 9 12 14
23 22 20 17 16 16 16 15 15 15 14 13 11 9 8 7 7 6 7 6 6 7 8 8 9 10 11 13 15 15 15 16 15 14 14 12 10 9 9 10 11 12 14
23 23 20 18 18 17 17 17 16 14 13 11 9 6 5 4 3 2 3 3 4 4 5 6 7 8 10 12 15 15 15 16 16 15 15 14 13 11 11 11 12 13 14
26 24 22 21 19 19 19 17 15 14 12 9 7 5 5 4 3 2 0 1 4 6 7 9 10 10 11 15 17 17 17 18 18 17 16 15 13 12 11 12 13 13 14
29 26 24 20 19 18 18 17 15 13 12 10 7 5 5 5 5 3 2 3 5 8 10 10 10 11 14 17 18 18 18 18 18 19 18 18 17 16 16 15 16 15 15
28 28 24 23 21 19 16 15 15 15 14 12 9 7 6 3 2 1 2 5 7 9 10 10 11 14 16 18 19 19 19 19 20 21 21 21 21 21 21 19 17 17 17
29 28 26 24 20 17 14 15 15 14 15 12 10 8 6 6 5 3 2 5 7 9 11 13 14 16 18 20 19 19 20 20 19 20 20 21 24 26 26 24 23 19 17
31 32 29 25 19 18 15 12 13 14 12 13 12 9 7 7 5 3 3 4 6 10 11 13 15 16 17 19 22 23 23 23 23 23 23 24 23 22 24 29 29 27 23
36 35 29 26 19 16 13 9 9 11 10 9 11 8 6 4 2 1 3 5 9 11 13 15 18 20 21 21 22 24 24 25 25 26 25 25 25 25 24 25 26 32 31
33 33 27 22 11 10 11 7 6 7 5 5 8 5 2 4 6 4 5 9 11 13 16 19 22 24 26 27 29 30 31 28 25 23 23 24 23 21 21 22 22 25 31
29 30 24 15 5 3 4 10 12 10 10 11 12 11 9 9 10 10 13 14 15 18 20 22 23 24 26 29 31 31 29 27 25 19 14 18 19 19 19 18 18 20 22
21 20 20 11 12 10 15 17 17 19 18 15 14 12 10 11 11 13 15 17 20 22 24 25 26 27 26 22 25 18 25 24 14 17 19 25 22 22 21 21 22 21 20
20 16 10 11 12 15 18 16 16 20 16 15 13 10 10 10 12 14 16 18 20 22 21 21 22 21 22 23 15 23 22 5 24 13 33 22 26 24 25 26 27 26 25
23 22 19 18 16 14 13 14 11 11 11 9 7 6 7 8 11 14 18 19 20 23 23 23 21 19 15 18 14 15 4 17 5 31 16 27 21 26 30 29 27 26 24
23 21 20 18 14 11 9 8 10 9 5 4 4 6 8 10 14 17 15 13 17 22 19 16 15 16 15 15 15 6 4 3 17 8 29 10 24 24 26 25 23 19 18
22 20 18 16 13 10 7 5 5 5 7 6 5 5 6 11 15 14 12 13 17 15 9 9 11 12 12 14 18 12 12 16 5 8 2 23 15 25 22 22 20 15 18
17 16 14 14 12 10 8 4 5 7 6 5 2 4 10 12 13 12 11 14 16 9 7 9 10 11 12 12 13 16 18 16 18 7 10 7 19 23 24 22 16 15 14
13 14 13 11 9 7 6 6 7 8 8 4 1 8 14 15 14 12 10 12 11 8 9 10 11 11 12 12 13 14 13 8 13 12 7 15 14 18 16 20 15 14 14

GFSSE_925_spd_030.txt.gz
Wind_Speed
17 19 18 19 19 21 21 20 21 21 20 18 17 17 17 16 14 13 13 12 13 12 11 10 11 12 12 12 11 11 10 10 9 7 7 6 4 4 7 6 6 6 6
22 20 19 20 21 21 21 21 20 19 17 16 16 15 14 13 12 12 12 12 12 12 13 13 13 14 13 13 13 13 12 10 8 8 6 6 3 2 3 5 4 4 1
22 21 21 21 22 21 21 20 19 17 16 15 14 13 13 13 13 14 13 13 14 14 14 14 14 14 14 14 13 12 12 10 9 8 6 5 3 3 4 6 5 5 4
23 21 21 21 21 21 20 19 17 16 15 14 13 12 13 13 14 14 14 14 13 14 14 13 14 14 15 15 15 14 14 12 10 8 5 5 4 5 7 5 7 7 4
23 22 21 20 21 20 19 17 16 16 15 14 12 12 12 13 13 14 14 13 13 14 14 14 14 14 15 15 16 17 17 14 12 10 5 5 4 7 7 10 10 7 6
21 21 20 20 19 18 17 16 16 15 14 13 12 12 12 13 14 14 14 13 14 15 15 15 16 16 15 17 18 18 18 16 13 12 8 4 5 6 8 10 11 11 7
22 21 19 18 18 17 16 16 15 14 13 13 13 12 12 14 14 14 14 14 15 15 15 16 17 18 18 18 18 19 18 17 16 14 11 9 7 9 10 11 11 13 13
23 22 20 18 16 16 16 15 15 14 14 14 13 13 14 13 14 14 14 15 15 15 16 16 16 16 16 16 16 18 18 16 15 14 14 12 10 10 12 12 12 13 15
23 22 19 18 17 15 15 15 14 14 13 13 13 13 12 12 12 12 12 12 12 12 13 13 14 14 15 16 16 16 16 17 17 14 13 13 12 12 12 13 14 14 15
21 20 19 18 16 16 15 14 13 13 13 13 12 10 10 10 9 8 9 8 8 8 8 9 9 11 13 15 16 16 17 16 17 16 16 16 13 13 13 13 15 16 16
21 20 18 17 17 16 16 15 14 13 13 12 10 8 7 6 5 5 4 4 6 5 6 7 8 9 10 13 14 14 14 16 17 17 16 15 15 13 12 13 15 17 19
23 22 19 18 18 18 18 17 16 15 13 10 9 7 6 4 2 2 2 3 4 5 7 7 7 7 8 12 14 13 13 14 15 16 17 17 17 16 14 14 15 18 19
26 23 20 19 19 18 18 17 16 14 12 10 8 6 5 3 2 1 1 2 4 5 6 6 7 9 12 14 15 15 15 15 15 16 16 18 19 20 18 17 17 17 17
27 23 21 20 18 18 18 17 15 14 12 9 7 4 3 3 2 3 2 2 4 5 7 9 10 12 13 15 17 18 19 18 17 17 16 15 16 18 20 22 19 20 20
26 25 23 20 18 16 14 14 15 14 12 8 7 5 3 2 1 3 3 4 6 8 9 11 12 14 15 17 17 19 20 20 20 20 20 19 19 18 19 18 19 20 21
27 25 20 18 14 12 10 10 14 12 10 9 8 6 3 1 1 3 4 6 8 11 12 13 15 15 16 16 18 20 21 23 23 21 20 19 18 17 18 19 21 21 20
24 21 19 14 8 5 4 4 2 5 6 6 6 3 2 4 6 7 8 10 12 12 14 15 16 17 19 20 21 23 23 23 21 19 18 17 16 16 15 15 18 21 22
21 20 16 13 8 8 5 4 6 3 5 7 7 8 10 11 9 10 10 11 11 13 16 18 20 21 21 21 22 21 19 20 18 12 11 15 15 16 16 16 16 17 19
20 21 21 15 8 6 4 7 10 11 14 16 15 13 11 11 10 10 10 12 15 18 21 20 19 19 18 18 19 12 20 21 13 11 14 21 20 21 21 21 22 21 20
22 26 25 17 13 8 15 17 20 19 16 14 12 10 8 8 9 10 13 16 20 22 21 21 20 19 17 20 17 16 19 11 10 15 18 26 23 26 24 27 28 27 25
22 25 20 16 16 20 22 20 18 17 14 11 8 6 5 5 8 12 16 18 17 18 19 20 20 19 18 22 11 21 18 3 18 12 29 19 27 22 27 29 27 27 26
25 24 21 21 21 19 17 14 10 12 9 6 5 3 4 8 12 16 18 16 15 18 20 18 16 15 11 16 11 9 4 8 4 28 12 25 13 24 24 26 24 22 20
25 27 27 25 22 16 10 9 9 9 8 6 4 2 6 11 13 15 16 13 14 16 14 11 13 16 13 15 15 4 3 2 14 7 24 11 26 19 27 25 22 18 16
18 17 16 14 12 11 9 7 7 5 7 4 3 2 6 10 13 16 16 12 12 13 11 10 9 11 9 10 11 4 10 10 4 7 3 15 16 27 33 28 21 18 12
12 10 11 8 8 6 5 3 2 2 3 5 1 4 7 9 13 13 13 11 10 8 6 4 6 8 9 10 9 12 12 11 14 8 9 11 15 18 23 22 22 16 14
11 11 10 9 7 5 4 2 2 2 3 1 4 7 10 11 14 15 15 13 12 10 8 7 7 9 11 11 12 11 10 6 10 8 6 7 11 13 20 17 18 16 14

GFSSE_925_spd_033.txt.gz
Wind_Speed
15 19 20 21 22 21 22 24 24 23 22 21 19 18 17 16 14 13 12 11 12 13 13 14 14 14 13 11 10 10 10 10 10 9 7 7 6 8 9 10 9 7 7
22 18 20 21 23 22 22 23 22 21 20 20 19 17 15 14 13 13 12 13 13 14 14 15 15 14 13 12 12 12 11 10 9 9 8 8 6 7 8 10 9 7 6
23 18 19 20 22 22 22 21 20 19 19 18 16 15 14 14 14 13 14 15 15 15 14 15 15 15 15 16 15 15 14 13 12 10 10 9 6 8 9 9 9 9 7
21 20 19 20 21 21 20 19 19 18 17 16 15 15 15 14 14 15 15 15 15 15 14 15 16 17 17 18 19 19 18 16 14 11 10 10 7 8 9 11 11 11 10
19 19 20 21 20 19 19 18 17 17 16 16 15 16 15 15 15 15 15 15 15 15 16 17 17 17 19 19 20 20 19 18 16 15 11 10 10 10 10 12 13 12 11
20 19 21 20 19 19 18 16 16 16 16 16 16 15 15 15 15 15 15 15 16 17 18 20 21 19 19 19 20 19 18 18 17 15 13 12 11 11 13 13 12 12 11
20 19 20 19 18 17 16 16 16 15 15 15 15 15 15 16 16 16 16 17 16 17 17 18 17 17 17 18 18 19 19 18 16 15 14 13 12 11 12 11 11 12 12
21 20 19 18 17 16 16 15 15 15 16 15 15 16 16 17 16 16 16 15 15 15 15 15 16 16 16 16 16 18 17 18 17 14 14 13 14 13 12 11 10 12 13
19 20 19 17 16 14 14 14 14 14 15 15 15 15 16 15 13 13 13 12 10 11 11 12 12 13 14 14 14 14 15 15 15 14 14 14 17 15 14 12 12 12 13
19 18 17 16 16 15 15 14 14 14 15 15 13 13 12 12 11 9 10 9 8 8 8 9 8 9 10 12 14 14 14 14 14 13 11 12 15 16 15 15 14 14 14
19 18 17 16 16 15 15 14 14 14 15 14 12 11 10 9 8 6 6 6 6 7 8 7 7 7 8 11 12 13 13 14 15 14 13 16 15 15 15 14 15 16 17
18 18 18 17 16 16 15 15 14 13 13 12 9 9 7 6 5 4 4 4 4 6 6 7 6 7 9 11 12 13 14 14 13 13 13 17 17 17 17 17 17 17 18
18 19 19 17 16 15 14 14 13 12 10 8 6 5 5 3 2 2 3 5 5 6 7 6 8 10 11 12 13 14 15 14 13 13 14 16 17 17 16 16 18 19 19
20 20 18 16 14 13 12 11 10 9 8 5 4 2 3 2 4 6 5 6 6 7 7 8 9 10 11 13 15 16 16 15 14 13 14 18 18 18 18 17 16 17 18
16 18 17 14 11 9 7 6 8 8 6 5 4 3 1 4 6 7 7 7 7 7 7 8 9 11 12 14 15 17 17 16 17 13 14 17 17 17 17 18 18 18 17
16 17 14 12 8 5 5 4 8 8 10 9 5 4 4 4 6 8 9 8 8 8 8 9 12 13 13 15 16 17 16 14 13 14 11 11 13 13 13 14 15 16 18
12 14 12 9 7 5 3 3 3 3 6 7 6 6 5 7 8 8 7 6 7 9 11 13 15 14 11 11 12 12 11 12 12 9 8 9 11 13 14 16 16 17 18
12 13 14 14 15 18 15 13 12 10 1 5 8 9 10 10 7 6 6 7 9 12 15 15 14 12 11 12 14 12 12 12 9 4 7 9 12 13 16 19 21 22 23
14 20 21 20 19 14 13 8 10 4 6 11 13 12 11 9 8 8 10 12 14 15 15 14 11 11 10 13 14 11 14 13 4 4 8 11 11 13 16 19 24 25 24
15 20 24 22 14 6 12 11 9 15 14 13 11 11 9 8 9 12 14 16 16 15 14 13 11 10 7 12 13 12 15 8 2 6 11 12 13 15 14 18 20 20 24
19 20 20 22 11 13 13 23 19 15 13 11 10 8 7 9 11 13 16 15 14 14 14 13 11 12 12 15 11 14 7 3 7 9 14 14 14 13 17 18 19 20 20
24 25 19 16 12 17 22 19 13 14 10 10 8 6 7 9 12 14 15 13 12 11 11 11 11 9 8 10 10 9 4 9 2 19 11 17 12 20 19 19 20 18 18
17 16 16 18 21 22 17 14 15 9 10 6 5 5 6 11 14 14 14 13 11 12 9 10 7 6 8 7 8 5 4 4 18 8 18 14 22 21 20 21 20 17 16
19 20 20 20 19 18 14 9 6 2 3 3 3 4 8 8 10 11 12 13 12 12 10 7 5 5 6 7 7 4 7 10 5 7 8 16 13 19 22 20 20 15 14
22 22 21 19 16 13 8 6 3 2 4 5 3 5 9 10 10 12 13 14 14 14 12 8 5 6 5 6 7 8 8 9 10 10 11 17 20 18 16 17 16 16 14
12 16 17 13 10 7 4 3 3 5 5 3 4 8 10 11 13 16 16 17 18 15 9 6 7 8 9 8 9 9 9 11 12 10 11 15 20 20 18 18 18 17 15

GFSSE_925_spd_036.txt.gz
Wind_Speed
18 20 20 20 22 22 22 22 22 21 19 17 16 16 15 14 13 11 12 13 14 15 15 14 13 13 14 14 14 14 14 14 13 11 9 11 9 11 12 10 9 8 9
21 20 22 20 21 21 21 21 20 19 17 16 16 15 14 13 13 12 13 15 15 15 14 14 14 14 16 17 17 17 16 15 13 12 10 8 10 12 12 12 11 10 10
21 20 21 21 19 21 21 20 18 17 16 16 15 14 14 14 13 14 15 15 14 14 14 13 14 16 17 18 18 18 17 16 15 14 14 8 9 13 13 14 14 13 11
22 21 20 21 20 21 20 19 17 16 15 15 15 15 14 14 15 15 15 15 14 13 13 14 16 18 18 18 17 18 18 18 18 15 10 10 8 13 14 15 17 16 11
20 20 20 22 21 20 19 17 16 15 15 15 15 15 15 15 16 16 15 15 15 15 15 16 17 18 19 19 18 18 18 17 17 13 11 11 10 13 14 13 12 13 13
17 18 20 21 20 19 18 16 15 14 14 15 15 14 15 15 15 15 16 16 16 17 18 17 17 16 17 17 18 18 17 16 14 12 11 12 11 13 14 13 12 12 12
17 16 18 19 19 18 16 16 15 14 14 15 15 15 16 15 15 16 16 16 16 16 16 16 15 15 15 15 16 16 17 18 15 13 11 10 12 13 13 13 13 13 13
17 16 16 17 17 16 15 15 14 14 14 15 16 16 16 16 16 15 14 14 14 14 14 13 13 13 13 14 15 15 16 16 14 13 12 11 15 14 13 12 13 13 13
15 15 15 14 14 14 13 13 14 14 14 15 16 16 15 14 14 13 11 10 10 10 10 9 10 10 12 13 14 15 15 16 13 13 12 11 15 14 14 13 12 13 14
15 15 15 14 14 12 11 13 13 13 13 14 14 13 12 11 10 9 9 8 7 6 6 6 6 7 8 10 11 12 13 14 13 13 13 13 15 14 14 14 13 13 14
15 15 14 14 12 12 11 11 11 12 12 12 11 11 8 6 6 5 6 5 4 4 5 5 5 5 7 10 11 12 13 12 12 13 13 16 18 17 15 15 15 15 15
17 15 13 12 12 11 9 10 9 9 8 7 7 5 5 4 3 3 3 2 3 3 4 3 4 7 7 7 10 12 12 13 12 13 13 17 18 19 18 15 15 16 16
16 14 12 11 11 10 9 9 8 8 7 5 4 3 3 3 3 2 2 1 2 3 2 4 5 6 8 8 9 11 12 13 14 15 14 16 17 17 17 16 15 15 16
15 13 12 10 10 9 9 7 7 6 5 3 2 2 3 3 3 4 3 1 2 3 3 5 6 6 8 9 10 12 13 14 15 15 15 16 17 15 15 13 14 14 15
13 13 12 11 10 9 8 5 4 3 2 1 1 1 1 3 4 4 3 2 3 3 4 6 7 9 11 13 14 14 15 15 14 14 13 16 15 12 12 12 13 15 16
12 12 11 10 10 9 8 6 4 2 0 1 5 6 5 4 5 5 4 4 3 4 6 8 10 12 13 14 14 14 14 14 14 13 12 12 14 14 12 12 13 15 17
12 12 12 10 10 11 11 10 7 3 3 6 6 3 5 5 6 6 5 4 5 6 9 10 11 11 12 12 14 15 14 14 14 12 11 11 12 13 17 17 17 18 19
13 15 14 12 15 18 14 11 10 11 10 5 2 6 7 8 8 8 6 6 6 8 9 10 11 12 12 13 15 17 16 16 15 12 10 11 11 12 14 16 21 21 19
14 17 18 18 15 12 13 7 6 11 4 5 8 7 8 9 9 8 6 6 7 8 9 11 12 11 14 14 17 18 17 18 16 11 10 11 12 13 16 17 18 21 20
16 19 21 20 15 14 17 6 7 8 11 10 8 7 7 7 7 6 6 7 8 8 9 10 10 12 13 14 18 17 18 16 12 9 12 13 14 15 15 18 19 18 20
19 22 22 23 19 4 12 13 10 11 10 8 7 7 6 6 5 7 6 6 7 7 7 9 11 14 15 14 19 19 18 10 11 12 13 18 14 15 18 18 18 21 21
19 19 19 18 17 14 12 13 11 9 6 7 7 6 5 4 5 5 5 6 6 9 10 11 12 14 16 14 15 19 8 14 14 10 19 15 16 18 19 19 20 20 20
18 19 17 17 16 16 16 11 10 9 8 7 6 5 2 2 1 3 5 6 8 10 13 13 13 13 15 16 11 12 10 9 17 18 18 14 19 20 21 21 21 21 20
20 20 20 19 18 16 12 11 11 5 6 5 6 5 2 2 3 6 8 8 10 12 14 14 13 11 12 16 15 14 13 16 10 11 18 18 19 22 23 22 20 21 21
16 16 16 16 14 13 13 9 6 4 5 6 5 3 4 6 7 8 10 12 14 16 16 14 12 13 12 14 16 16 15 15 16 13 10 18 21 19 19 19 20 22 22
14 14 14 15 13 11 9 8 7 6 5 4 2 5 8 10 11 12 13 14 16 17 17 17 15 13 15 16 15 14 14 15 16 15 11 19 22 22 19 21 21 21 23

GFSSE_925_spd_042.txt.gz
Wind_Speed
27 27 23 21 21 22 22 22 22 21 19 18 16 16 15 15 15 17 17 19 20 19 19 19 19 20 21 20 19 16 16 15 11 11 13 13 15 15 15 15 16 15 15
30 27 25 23 23 23 23 23 22 19 18 17 17 16 16 16 17 17 18 18 19 19 20 19 19 20 20 19 18 17 15 11 10 10 12 14 15 17 18 18 17 16 17
31 27 24 24 24 23 22 21 20 18 18 17 16 16 16 17 17 16 17 16 18 18 18 19 19 19 19 19 18 16 13 11 11 9 7 13 19 19 19 17 16 15 16
29 27 26 24 24 23 20 19 18 18 17 16 16 17 17 17 16 16 16 16 17 18 18 18 19 20 21 21 20 15 14 15 14 17 20 20 18 19 16 15 14 13 13
29 25 25 23 22 22 20 17 17 17 17 16 16 17 16 16 16 16 16 17 17 17 17 18 19 20 21 22 22 19 18 22 21 16 12 12 17 17 16 14 14 13 13
28 25 25 21 22 20 18 16 16 17 17 17 16 16 15 15 15 16 17 16 16 17 17 17 18 18 19 19 20 21 18 21 21 18 14 19 18 16 14 14 14 13 13
24 26 24 21 22 20 19 16 17 17 17 16 16 16 14 15 16 16 15 15 16 16 15 15 15 16 16 18 20 21 21 19 22 15 12 20 19 16 14 13 13 13 14
23 21 22 19 20 19 19 17 16 17 16 15 16 15 14 15 15 15 13 13 13 13 12 11 12 13 14 16 18 17 18 20 21 19 11 19 21 16 14 13 12 12 12
24 23 22 20 19 19 18 18 17 16 16 16 15 15 15 14 13 11 10 9 9 9 8 8 8 10 12 13 15 15 16 16 16 20 13 17 19 20 17 16 14 13 11
25 19 22 22 20 20 19 18 17 16 17 16 16 14 14 13 11 10 7 6 6 6 6 7 7 9 9 8 13 15 15 15 13 17 15 17 18 20 18 17 16 14 13
22 25 24 22 20 16 18 18 17 17 16 16 14 13 14 9 8 6 4 4 5 5 7 7 9 8 13 10 8 15 15 15 16 18 16 15 18 19 21 17 16 15 14
22 21 22 20 24 21 17 17 16 16 15 14 11 9 6 7 9 2 2 3 4 6 5 8 8 10 11 11 13 14 15 16 17 18 19 20 18 19 20 14 15 15 15
24 20 20 22 22 19 20 16 16 14 11 10 6 5 8 4 4 4 3 2 4 7 7 9 9 9 12 12 14 13 16 15 16 17 19 19 18 19 19 13 13 15 16
20 21 16 17 19 15 17 17 15 15 12 10 8 3 3 2 2 1 2 5 5 7 7 8 11 9 13 15 15 16 15 15 17 17 18 21 20 17 17 15 13 15 17
22 24 22 20 17 18 14 18 16 14 13 8 5 4 6 5 5 2 4 5 3 4 7 7 13 14 15 16 17 16 17 17 19 17 15 18 21 16 13 12 13 15 18
24 23 21 20 19 16 18 15 17 16 13 8 3 3 0 1 1 5 5 6 6 6 9 10 12 15 15 16 18 18 17 19 21 19 16 18 20 12 11 13 13 16 19
25 24 23 22 19 20 19 17 19 18 12 9 7 5 1 2 5 5 4 4 5 6 8 9 12 13 15 16 18 19 18 20 22 21 21 21 12 11 13 10 14 17 21
27 24 21 20 21 21 22 20 19 16 13 6 6 5 3 3 5 7 5 3 7 5 7 9 12 15 17 18 20 20 16 20 23 20 20 14 11 10 14 12 16 18 19
27 26 23 22 21 20 19 15 12 9 9 7 3 2 6 8 9 8 6 2 5 6 6 8 13 14 17 19 20 21 20 21 24 23 15 15 9 9 15 15 16 18 11
30 29 24 21 21 21 18 14 11 9 6 4 7 6 9 8 8 4 1 0 4 5 6 11 10 12 15 18 19 19 21 16 24 24 17 14 9 12 15 16 15 14 20
31 28 30 27 20 18 14 11 7 10 11 12 9 11 9 8 6 5 4 3 3 6 8 11 10 13 15 18 19 21 16 21 21 21 17 22 21 16 14 15 14 19 18
28 25 26 26 21 16 12 10 13 12 10 11 12 12 11 8 6 3 2 1 5 7 11 10 13 16 17 13 19 20 5 13 14 22 21 20 21 20 18 19 24 15 17
27 25 24 23 16 19 13 13 14 14 12 15 15 14 12 9 5 2 1 3 6 8 11 14 15 16 14 17 17 16 6 4 15 15 20 25 22 24 21 20 16 20 21
20 20 23 23 21 18 17 18 19 16 16 16 18 16 15 9 5 4 5 7 7 9 13 15 16 22 21 18 18 17 17 16 3 7 11 18 20 18 22 23 22 20 20
20 22 27 25 22 20 19 17 16 11 14 13 11 16 10 8 9 9 8 7 7 8 12 16 17 18 19 20 17 15 13 16 17 9 6 11 19 17 20 22 18 23 23
24 25 22 24 23 22 16 15 15 8 10 10 7 8 5 6 2 5 5 7 11 14 16 19 21 22 24 24 18 14 13 11 12 8 4 11 15 19 19 21 24 28 24

GFSSE_925_spd_045.txt.gz
Wind_Speed
29 29 26 24 24 24 23 23 23 23 22 22 21 21 22 22 22 22 23 23 23 21 21 21 21 22 22 20 20 20 21 19 17 18 19 20 20 20 20 19 19 19 17
38 31 29 27 26 25 24 23 23 22 22 22 21 21 22 22 22 21 21 23 23 22 22 21 22 23 23 22 21 21 21 19 12 16 20 20 21 20 20 19 17 18 17
37 33 28 30 29 27 25 23 22 22 22 22 22 22 22 21 21 21 20 22 23 22 22 24 25 26 25 23 21 23 29 25 13 16 16 19 19 19 19 18 17 16 16
35 32 31 30 29 27 25 22 22 22 21 21 22 22 22 21 20 21 22 22 23 22 22 24 25 26 27 25 22 25 36 27 28 22 18 17 19 19 18 17 16 16 16
34 33 32 31 29 26 24 23 23 23 21 21 23 22 22 21 20 21 23 22 22 22 21 23 23 24 25 26 23 24 33 24 19 18 21 22 21 20 19 17 17 15 14
36 36 32 30 29 26 24 23 23 24 21 22 22 21 22 21 21 21 22 22 21 21 21 21 21 22 24 25 24 22 23 30 11 20 21 21 21 17 16 16 17 15 14
35 35 32 28 25 24 24 23 23 23 21 21 21 21 22 21 20 20 21 21 19 19 18 18 18 19 21 23 22 21 19 25 17 15 19 21 19 18 17 15 15 15 15
31 31 29 24 22 19 22 22 23 22 22 21 21 21 21 21 19 19 18 17 16 14 14 15 15 16 18 20 20 19 17 19 22 13 16 18 18 17 17 16 15 15 14
28 24 22 20 17 19 22 23 22 21 21 21 21 22 20 20 18 15 14 13 12 11 12 12 13 13 13 16 19 18 15 15 22 9 15 18 18 17 17 17 15 15 14
31 27 23 16 20 21 22 21 21 21 21 22 22 20 18 17 14 12 10 9 9 10 11 11 11 11 14 10 17 16 14 15 18 22 15 16 17 15 16 17 15 15 16
26 25 23 21 22 21 22 21 21 20 22 21 20 19 18 14 12 10 8 7 8 9 12 12 10 11 12 14 11 13 13 15 14 21 17 19 16 15 14 16 15 15 15
23 22 25 26 25 25 23 22 22 22 21 20 18 16 12 11 9 7 7 8 10 9 9 10 11 11 12 12 13 13 15 14 13 15 19 18 17 13 13 13 14 15 16
25 22 26 27 26 24 24 23 24 23 21 17 11 8 10 11 9 3 6 9 7 11 12 13 8 7 9 11 13 14 13 12 15 15 16 16 16 12 11 11 13 14 16
25 28 28 27 26 24 24 26 23 21 18 16 14 14 12 8 5 5 7 7 15 13 9 6 8 11 12 12 13 14 12 13 14 18 12 14 15 15 7 9 12 14 16
27 30 32 30 25 26 27 22 19 20 22 20 14 11 11 12 12 11 11 10 8 6 6 6 9 11 11 12 11 15 16 14 13 18 16 17 19 13 5 8 11 14 16
32 27 27 22 23 22 24 27 26 25 21 16 12 11 10 9 10 10 9 8 5 5 6 7 8 9 10 12 13 14 16 14 15 17 19 21 19 6 6 7 10 13 15
36 32 24 26 21 24 27 25 23 19 15 15 14 11 10 9 12 12 9 7 6 6 6 6 6 8 11 11 13 14 11 16 16 17 20 19 7 6 6 9 11 13 12
37 31 26 22 23 25 23 22 20 17 15 14 13 12 10 12 11 8 5 6 7 6 4 6 7 10 11 13 14 15 18 20 17 22 20 17 4 8 7 7 10 11 11
36 34 28 28 26 24 22 21 20 17 14 11 10 11 15 15 12 7 7 6 6 4 4 7 10 10 12 14 14 13 15 16 18 18 19 13 15 13 11 12 10 8 10
36 37 34 31 27 25 24 22 18 12 10 9 10 12 15 14 12 6 4 3 4 4 5 9 7 8 14 12 16 13 18 14 13 17 17 15 17 16 16 15 14 17 15
41 40 37 33 29 27 24 18 12 12 12 12 10 13 13 14 10 7 7 5 5 4 7 7 9 14 16 15 11 21 19 10 15 10 15 16 20 18 16 16 20 14 13
40 38 36 31 29 25 20 16 13 16 14 12 13 13 14 11 9 7 6 2 2 6 5 8 12 15 14 15 18 17 4 14 7 12 21 24 18 17 17 12 13 18 20
30 34 33 31 28 23 17 14 13 13 17 16 15 14 16 14 9 6 5 4 1 2 5 10 12 14 19 20 16 10 3 3 6 8 17 10 16 18 13 16 18 16 14
29 33 31 30 27 22 20 22 21 23 23 21 19 19 19 13 11 7 6 6 8 5 5 6 9 12 16 18 19 20 16 10 2 4 3 17 15 14 19 17 17 15 17
36 33 31 28 22 23 25 25 24 23 22 25 23 22 19 15 11 7 7 5 5 1 5 10 14 17 19 21 20 15 12 10 12 5 5 2 16 16 15 14 16 21 25
36 34 30 27 24 24 29 27 25 20 20 22 25 24 18 14 12 10 8 4 1 6 9 12 15 16 18 20 22 23 12 6 5 7 4 6 10 15 14 13 19 20 17

GFSSE_925_spd_048.txt.gz
Wind_Speed
30 31 29 29 28 26 26 25 24 24 24 24 24 25 25 25 25 26 27 25 23 22 21 21 22 23 25 25 23 17 16 18 21 20 20 24 21 21 22 21 21 20 18
37 34 31 32 31 28 27 26 24 24 24 24 25 25 27 25 25 27 26 25 23 23 23 24 25 26 28 30 25 15 15 18 20 21 22 21 22 21 21 20 19 19 18
34 35 34 33 33 30 28 26 25 24 25 25 26 26 27 26 25 26 26 24 24 23 26 28 29 29 31 36 30 30 26 23 19 19 21 23 22 21 21 20 20 19 19
36 36 35 34 32 30 27 25 24 25 25 26 26 25 27 24 25 25 25 26 25 24 27 28 30 29 30 37 34 30 27 22 19 21 23 23 23 22 21 20 18 19 18
30 34 35 35 33 29 26 25 25 25 26 26 26 24 25 25 25 25 26 26 25 25 26 27 28 29 28 32 34 26 20 19 21 22 23 24 24 20 20 18 18 18 18
32 36 36 36 33 29 26 24 25 27 27 26 26 25 25 26 26 26 26 25 25 24 24 25 26 26 26 25 32 30 23 18 20 21 22 22 22 19 20 19 16 16 16
36 38 35 33 32 29 27 25 25 25 26 25 25 25 25 26 27 25 24 23 23 21 21 22 22 24 24 22 21 27 28 18 20 20 20 20 19 17 18 18 16 16 16
24 28 30 29 28 27 26 25 24 24 25 25 25 25 25 26 26 23 22 21 19 18 19 19 19 19 20 19 18 19 23 21 16 17 18 18 16 16 17 18 17 16 14
24 23 25 25 20 20 23 24 23 23 24 25 25 25 24 24 22 20 18 17 16 17 16 15 16 14 14 16 14 14 17 18 19 15 17 18 16 15 16 17 16 17 17
29 33 36 36 17 15 20 21 23 23 25 25 24 23 22 20 18 16 15 14 15 15 16 15 15 15 14 10 12 14 15 17 16 15 16 15 14 15 15 16 16 16 16
31 33 34 26 21 23 23 22 23 24 25 24 23 22 20 19 17 14 13 13 15 17 15 13 13 11 10 11 13 14 14 15 14 16 15 12 13 12 12 13 14 15 16
26 31 31 26 29 28 26 25 25 26 26 25 21 20 17 16 15 14 14 14 14 12 11 12 11 11 9 9 11 13 12 12 12 13 14 11 11 9 9 10 12 13 14
29 29 27 26 27 27 27 26 26 24 24 21 17 15 13 12 12 13 14 14 13 11 14 11 8 7 8 8 10 11 12 12 11 13 11 11 11 6 5 9 9 12 12
28 26 25 28 27 26 27 27 26 24 21 17 13 11 12 11 11 11 13 12 15 14 12 7 7 7 7 10 11 12 13 12 13 14 14 14 12 5 4 7 8 9 10
27 24 28 28 27 26 26 26 26 23 19 16 14 13 14 14 15 14 20 19 15 11 6 4 5 7 8 10 10 11 12 12 12 15 13 15 11 0 6 6 6 7 8
20 27 33 29 29 27 28 25 24 19 19 18 16 15 17 17 18 20 19 15 12 7 6 6 8 9 10 9 10 11 12 13 14 16 15 14 4 3 4 5 5 6 7
28 31 34 32 30 27 26 22 21 24 22 20 15 14 14 15 17 17 15 12 9 6 5 6 6 8 9 10 9 9 11 15 15 18 17 8 2 2 6 5 5 5 6
35 37 31 32 29 27 26 27 27 24 20 16 14 13 13 14 15 14 11 9 9 6 5 5 7 8 8 8 7 7 9 13 12 13 14 14 11 6 3 3 5 5 5
39 37 32 31 32 32 31 29 25 20 17 16 14 13 13 15 13 11 11 10 8 6 3 5 5 6 9 8 8 5 11 12 9 9 8 9 13 12 8 6 8 10 7
38 39 36 33 34 32 30 26 21 18 16 13 12 14 15 15 15 13 11 10 8 6 2 3 4 6 11 7 7 5 10 11 4 11 4 9 12 14 13 12 10 5 6
35 40 38 37 35 33 30 25 20 18 16 13 12 16 17 16 14 12 12 10 8 4 2 3 4 7 9 10 5 16 12 3 12 4 10 16 14 13 12 8 5 9 11
40 39 40 38 36 33 30 26 20 17 15 14 16 19 19 16 12 11 9 12 7 2 1 1 4 6 6 12 9 9 3 8 2 13 15 10 18 12 11 6 9 11 8
32 40 41 40 37 32 27 22 15 16 13 17 20 21 20 16 12 10 8 6 6 3 2 0 3 7 7 10 11 5 3 3 5 7 9 16 7 19 11 8 8 6 8
35 37 38 39 34 30 26 22 21 25 24 23 26 23 20 18 13 12 10 11 8 7 3 2 6 9 10 12 12 11 14 15 3 4 3 9 16 9 17 14 10 12 16
35 40 40 35 31 28 28 25 25 24 27 24 24 23 24 21 15 15 13 9 9 6 1 4 8 10 12 13 14 15 15 13 10 4 4 3 12 17 14 14 16 18 20
32 36 37 33 33 29 30 28 28 27 26 22 25 25 25 20 15 13 11 10 6 3 5 7 9 12 13 14 15 14 10 7 4 4 5 12 11 14 10 13 15 15 17

GFSSE_925_spd_051.txt.gz
Wind_Speed
29 28 28 28 28 29 29 30 29 27 27 26 26 27 29 29 29 28 27 25 24 24 25 25 23 21 17 17 19 22 24 23 22 22 22 21 21 21 21 21 21 21 19
34 31 30 29 29 29 28 27 27 26 25 26 28 30 30 30 29 30 28 27 25 25 26 25 25 24 23 19 20 23 23 22 23 24 23 22 21 20 20 19 20 20 20
35 32 31 30 31 30 28 28 26 24 25 26 27 30 30 30 29 30 30 29 26 26 27 27 29 30 33 33 30 24 22 22 23 24 24 24 23 21 20 19 19 19 20
31 32 32 31 32 31 30 27 25 25 25 26 28 28 30 29 27 29 31 30 27 26 28 29 33 33 30 30 27 24 23 23 24 23 24 24 22 21 20 19 19 20 20
30 31 33 33 32 30 30 28 26 26 27 27 27 27 26 26 27 30 31 30 29 28 27 29 33 33 32 28 23 23 23 23 24 22 22 22 21 20 20 20 19 19 20
30 33 34 33 33 30 28 28 27 26 26 26 27 28 26 26 29 29 30 29 28 27 27 26 30 31 31 30 25 21 21 22 20 20 21 20 20 18 20 20 20 19 19
23 35 35 34 32 29 28 27 27 26 26 25 26 28 29 29 29 28 28 27 25 24 24 24 23 28 27 27 26 23 19 17 18 20 20 19 17 18 18 19 18 17 18
6 26 35 31 30 28 29 26 26 26 24 25 26 28 30 29 28 27 25 24 22 22 21 20 19 19 22 22 21 20 19 18 17 18 17 17 15 16 17 18 18 18 18
21 29 29 27 26 25 26 25 23 23 24 25 26 27 28 27 25 23 22 22 20 19 19 17 16 14 14 16 17 15 15 16 16 16 15 15 13 13 15 15 16 17 18
25 27 30 28 24 23 23 19 19 21 22 24 26 26 25 23 22 21 20 20 18 17 16 17 16 15 14 13 14 15 13 14 15 14 14 12 11 11 12 14 15 16 16
28 33 23 25 22 14 13 16 19 21 22 23 24 23 21 20 19 18 19 19 18 15 15 14 13 13 12 12 13 12 12 13 13 13 10 10 10 9 9 10 12 13 15
34 38 33 29 23 15 19 22 23 24 24 23 22 21 19 18 17 17 19 17 15 14 15 12 10 10 10 11 10 11 13 13 13 13 11 9 9 7 6 8 11 12 13
30 32 31 31 28 22 22 20 22 23 23 21 20 18 17 16 16 17 16 14 13 13 13 11 9 9 10 9 9 10 11 12 13 11 10 9 7 4 3 6 9 10 11
24 24 23 27 23 25 22 24 23 23 22 20 18 16 14 14 14 15 14 13 13 13 12 9 9 10 10 8 7 8 10 13 12 13 10 9 5 1 3 5 7 6 9
24 25 24 23 28 27 23 23 24 23 20 17 15 14 13 15 13 15 14 14 14 12 9 8 9 9 9 9 8 8 10 12 12 13 13 10 3 3 4 4 5 5 7
27 28 28 27 29 25 26 26 25 23 19 16 14 13 15 15 15 17 18 17 14 10 9 7 9 8 9 9 8 8 11 12 13 14 12 4 6 7 6 5 5 4 4
29 28 27 29 29 27 28 27 25 21 18 17 15 14 14 17 18 21 20 17 13 10 9 8 9 8 8 9 7 9 9 11 11 11 11 6 7 7 6 5 4 3 3
23 27 28 29 30 28 27 26 25 21 21 18 15 14 16 17 21 20 17 15 13 10 7 6 7 8 8 5 6 6 8 11 5 7 10 11 8 5 2 3 4 4 4
25 30 34 30 30 29 29 28 26 23 19 16 15 15 18 20 18 16 15 14 12 9 6 5 7 6 6 3 5 2 10 8 3 7 5 9 8 7 6 5 8 7 4
23 28 34 33 31 31 30 25 24 22 18 17 17 18 17 17 16 16 15 14 12 8 5 4 6 4 5 3 7 4 10 6 2 7 3 7 11 9 7 8 7 2 2
26 30 34 34 35 34 31 29 26 24 22 19 17 16 17 18 18 17 15 14 10 5 2 4 3 2 3 7 1 11 4 4 3 2 15 16 9 13 10 4 2 5 6
33 36 35 37 37 37 36 33 26 24 21 18 18 19 20 20 19 16 13 11 8 5 4 4 1 1 1 7 6 2 3 4 6 6 14 6 11 9 11 8 7 7 6
37 42 42 42 41 40 36 31 21 22 16 19 21 22 22 20 17 15 12 10 10 6 6 4 2 2 3 5 5 2 2 3 5 6 8 8 7 12 15 9 7 6 9
42 39 41 42 41 40 36 32 29 29 20 23 24 24 23 20 17 15 14 11 8 6 6 5 2 4 5 4 4 2 6 9 2 4 4 7 10 11 12 18 11 11 13
29 32 37 37 40 40 36 34 30 23 21 17 22 24 24 22 20 16 13 13 12 9 5 2 3 7 7 5 5 6 8 8 8 8 3 3 8 13 18 15 13 14 12
28 32 36 37 42 41 38 34 28 24 22 20 23 26 25 23 18 16 15 12 10 5 2 4 8 9 8 8 7 6 5 3 4 6 4 11 14 14 12 13 10 12 14

GFSSE_925_spd_054.txt.gz
Wind_Speed
29 34 32 31 32 32 33 33 32 30 29 28 28 28 29 29 30 31 30 30 28 25 22 21 21 22 23 26 27 26 24 23 24 24 23 23 22 22 22 21 22 22 20
34 36 34 33 33 33 34 34 32 31 29 28 29 30 31 31 31 32 32 31 29 25 23 23 22 21 26 27 25 24 25 26 27 26 24 23 22 21 21 20 21 21 20
33 35 35 34 34 35 34 33 31 31 30 29 29 30 31 32 33 34 33 30 29 27 28 29 31 31 29 26 25 25 25 25 25 24 24 24 22 20 20 20 19 19 20
31 36 35 35 33 34 34 32 31 31 31 31 28 26 29 32 33 34 33 32 31 29 29 30 31 30 28 25 25 25 23 23 22 22 23 22 21 20 19 19 18 18 18
27 30 33 34 33 34 33 31 31 30 31 31 29 26 26 30 33 34 34 32 31 31 30 30 29 28 27 25 24 23 22 21 20 20 20 19 20 19 18 18 17 17 18
25 29 32 32 33 34 33 31 31 33 30 30 28 27 27 28 31 34 33 32 31 30 30 31 31 28 26 23 20 20 19 18 18 19 19 18 19 16 17 17 16 16 16
15 26 30 33 36 34 32 31 31 31 30 28 27 27 28 29 32 31 30 30 31 29 29 29 27 27 25 22 20 18 17 16 17 17 17 16 16 16 16 17 18 17 17
10 8 34 32 33 34 29 28 28 30 30 28 28 27 28 30 30 29 27 26 26 26 26 26 24 24 21 20 18 18 17 16 16 16 15 15 14 14 16 17 18 18 18
14 15 35 32 28 24 27 27 26 26 27 28 28 28 28 28 27 26 24 24 22 21 22 21 21 20 18 16 16 16 16 15 15 15 14 13 12 12 14 15 17 17 17
28 37 44 37 20 17 21 21 22 23 25 26 27 28 26 24 24 23 22 20 20 20 19 19 17 18 17 15 15 14 13 13 13 12 13 12 10 11 12 13 15 16 17
26 29 36 30 30 18 19 21 21 19 21 24 25 23 22 21 21 21 19 18 18 17 17 16 15 14 14 16 14 13 11 12 10 10 11 10 8 8 9 10 12 14 15
28 33 40 34 27 23 19 19 17 19 21 23 24 21 20 19 19 19 18 17 16 15 14 14 13 12 12 12 13 11 13 12 12 10 8 7 7 4 6 8 9 11 12
34 33 33 30 28 25 21 21 20 19 20 20 20 18 19 18 18 18 17 14 15 14 13 11 11 11 10 10 10 10 11 11 10 8 7 3 4 3 4 6 7 8 10
24 35 35 32 31 27 18 17 18 20 21 21 20 20 18 18 17 15 14 14 14 13 12 10 10 10 9 10 8 9 11 11 11 11 9 6 1 4 4 4 5 6 7
22 28 29 34 29 20 17 20 22 23 21 19 17 17 15 16 17 16 14 15 15 12 9 10 10 9 11 9 9 11 10 12 13 13 10 5 4 6 5 3 4 4 5
26 25 24 25 19 18 20 22 23 24 22 20 18 16 14 16 15 16 17 16 14 11 10 10 9 10 12 8 8 9 10 11 14 13 11 6 7 8 6 4 4 3 4
26 25 26 23 21 22 22 22 24 23 21 18 15 16 17 17 16 18 19 17 14 11 10 8 8 9 8 7 8 7 7 9 7 10 10 6 6 5 4 6 5 4 4
21 24 24 24 23 24 22 23 23 21 19 16 16 15 17 18 18 21 19 17 15 11 8 7 7 7 7 6 6 2 4 5 5 9 9 11 7 3 4 6 5 7 8
26 23 23 23 25 25 23 24 22 21 19 18 17 18 16 18 21 20 19 17 15 11 8 5 7 5 5 2 3 3 7 1 6 6 7 7 8 9 8 9 12 12 9
25 22 23 24 23 25 23 23 22 21 20 20 18 18 19 20 21 19 18 18 15 12 8 5 5 4 3 0 3 4 10 4 8 4 5 14 9 8 14 11 9 6 6
22 24 25 26 26 27 27 25 24 25 23 20 19 19 19 21 21 20 19 18 14 9 7 7 5 3 3 3 2 3 2 5 9 4 2 6 3 9 9 8 10 9 10
29 29 30 33 32 31 31 30 26 26 23 22 20 20 20 20 21 21 19 17 15 12 10 8 6 5 3 2 2 1 3 2 6 8 13 4 4 6 9 10 10 10 9
33 34 33 34 36 34 34 31 24 25 20 20 21 21 22 22 21 19 18 18 15 11 9 9 7 6 4 1 3 1 1 2 3 4 4 5 3 7 12 9 12 12 11
34 33 33 33 34 35 36 35 35 32 24 27 27 24 23 22 20 20 18 16 14 12 10 8 4 1 4 2 2 2 3 5 2 3 3 5 10 10 15 17 19 11 11
28 34 37 37 36 36 37 37 35 32 30 23 24 23 24 23 21 20 18 17 14 12 11 4 4 5 6 4 3 2 4 5 8 7 3 5 12 13 14 16 11 10 8
26 30 34 37 38 37 38 38 37 34 25 19 20 26 26 23 21 19 18 17 16 13 8 3 2 4 4 3 1 3 5 5 6 8 5 7 11 11 7 15 13 11 12

GFSSE_925_spd_057.txt.gz
Wind_Speed
27 29 32 34 36 37 38 38 38 36 33 31 28 27 28 29 30 29 30 30 27 24 24 24 26 25 25 26 25 25 25 25 25 24 23 22 21 21 20 20 21 19 21
32 31 34 35 37 37 37 37 36 34 31 29 30 31 31 31 30 32 30 29 26 23 23 26 27 26 24 26 26 27 26 26 25 24 23 21 21 20 20 20 19 18 20
31 32 33 34 35 37 36 36 34 33 32 32 32 33 33 32 32 33 31 28 29 27 27 29 27 26 25 26 25 24 23 22 21 21 21 18 18 19 18 18 18 18 19
32 31 31 33 33 34 34 33 33 32 34 35 34 35 32 31 32 32 31 31 31 32 31 29 27 26 25 25 23 22 20 19 19 19 16 16 17 18 18 17 17 17 17
31 30 29 33 33 34 36 36 36 36 36 34 35 36 33 32 32 31 32 31 30 30 30 29 27 26 23 22 20 19 19 18 17 17 16 15 15 17 17 16 16 17 16
27 33 33 34 36 37 37 38 37 36 36 35 32 36 34 32 32 31 31 32 31 30 29 28 27 25 21 20 19 19 16 15 16 15 15 16 15 16 18 17 17 16 16
19 26 32 33 36 37 39 38 39 37 36 34 34 35 33 32 33 30 29 31 31 31 30 29 26 23 21 19 18 16 14 15 14 14 14 14 14 16 17 17 18 17 17
16 16 15 30 31 23 29 31 38 36 35 33 35 34 34 33 31 30 28 28 29 29 29 27 25 22 20 18 16 15 13 14 14 13 13 12 14 15 16 17 17 16 17
31 32 35 36 43 34 14 22 32 33 31 32 33 33 31 30 29 28 28 27 27 26 25 23 22 20 19 17 14 13 13 13 13 12 11 11 11 12 14 15 15 16 17
25 29 30 34 40 36 18 14 23 29 29 30 31 32 29 27 26 26 25 23 23 23 22 21 20 19 16 14 13 12 12 12 12 10 10 9 9 10 11 13 14 15 16
28 35 40 48 44 43 29 16 17 25 28 28 29 28 27 23 22 20 21 23 23 22 20 19 18 16 14 14 12 11 11 12 10 8 8 9 8 7 8 10 12 14 15
23 26 35 37 39 39 35 29 21 21 26 28 28 26 24 23 20 20 21 20 19 19 19 18 16 14 13 13 12 11 13 11 10 7 5 5 6 4 5 8 10 12 12
22 28 32 41 39 36 34 31 29 27 27 27 25 24 22 22 20 20 20 19 19 17 17 14 13 12 12 11 11 11 11 10 8 6 4 1 3 2 4 6 8 9 10
22 28 27 27 30 33 31 30 30 29 27 26 24 22 22 20 19 19 18 18 16 14 13 11 11 12 10 10 11 11 11 10 10 8 5 2 4 4 4 5 4 6 6
21 20 21 21 24 25 25 26 24 25 26 24 22 20 19 21 20 18 19 17 15 14 13 12 10 9 9 9 9 10 10 11 12 9 8 6 7 7 5 4 3 3 3
23 21 16 16 21 17 16 17 21 22 22 21 20 18 17 18 20 19 19 18 16 15 12 10 9 10 9 9 9 8 9 11 10 10 8 7 8 10 7 4 2 2 2
23 19 16 19 17 13 13 15 17 20 20 20 19 18 18 19 20 21 20 19 17 15 12 11 10 8 8 7 7 6 8 9 7 8 5 5 5 4 2 3 2 3 5
22 20 17 20 18 16 16 15 16 18 20 19 20 21 23 22 22 21 21 19 18 15 12 9 9 9 7 6 5 3 4 3 4 5 7 6 4 1 1 2 4 8 11
24 21 19 20 18 17 17 16 18 19 21 20 19 19 20 22 23 22 22 20 18 15 12 10 9 7 6 4 3 2 4 2 6 4 5 3 5 2 3 7 8 8 9
23 19 17 19 20 18 18 18 20 21 21 21 20 20 19 20 21 23 22 21 19 16 13 11 7 6 5 1 1 3 6 5 8 6 4 4 1 2 6 5 4 7 8
23 23 23 23 24 24 25 22 22 24 23 22 22 19 18 21 22 23 23 22 19 15 12 9 9 6 4 0 1 3 2 6 9 9 9 4 3 4 6 5 7 7 6
28 31 29 28 28 28 27 25 18 20 23 23 23 21 20 22 24 25 24 22 20 16 13 12 9 6 3 1 1 2 2 3 8 11 11 9 6 5 6 7 7 7 7
27 32 31 29 28 28 25 24 22 20 19 21 21 22 22 24 25 25 22 21 20 17 15 13 10 7 5 3 2 2 2 2 4 6 7 7 6 4 5 10 11 11 8
28 26 27 27 27 29 28 26 27 20 19 20 22 22 23 25 24 22 22 21 20 19 15 13 11 8 6 4 3 5 4 4 3 4 5 5 6 7 11 13 12 8 6
24 25 27 26 27 28 32 31 31 24 18 19 23 21 22 24 24 24 22 23 21 18 16 14 11 8 6 5 4 5 5 5 7 7 7 7 8 13 12 11 12 8 6
22 25 28 27 26 27 28 29 28 23 22 20 20 24 24 25 25 24 24 23 22 20 20 17 9 5 6 5 5 5 4 4 5 7 7 11 12 10 8 10 9 7 7

GFSSE_925_spd_060.txt.gz
Wind_Speed
19 25 28 29 31 35 36 38 37 35 33 31 29 29 28 27 27 28 29 29 29 29 26 27 28 26 25 24 25 25 24 24 24 23 22 22 21 20 20 20 18 19 20
24 29 31 32 34 36 36 38 36 35 33 31 32 31 29 30 30 30 28 27 26 26 26 27 27 27 26 25 25 24 23 22 23 20 19 21 21 20 20 20 20 19 20
26 30 30 33 35 36 35 37 37 35 33 32 33 33 32 32 31 29 26 26 25 27 26 25 26 26 26 24 23 22 20 21 22 21 18 17 19 20 19 20 20 19 19
26 31 31 33 34 36 39 38 36 34 34 34 35 35 35 33 31 29 28 27 28 29 26 24 25 25 24 22 21 20 19 19 22 16 15 16 17 18 18 18 17 18 18
29 32 32 35 36 38 37 36 35 35 36 37 37 36 36 33 32 31 30 31 32 29 25 24 24 24 22 20 19 18 17 20 19 15 15 15 15 16 17 17 16 16 16
28 32 35 37 36 37 35 35 35 37 36 38 38 37 35 35 33 31 30 30 29 26 24 24 24 22 20 19 17 16 16 18 13 14 14 15 15 16 17 18 17 17 17
12 30 38 37 32 28 27 31 35 36 38 37 38 37 36 34 33 30 29 28 27 26 25 25 22 19 18 17 16 14 15 15 13 12 14 14 14 15 16 17 17 17 17
7 17 24 30 28 25 23 21 23 30 35 36 36 35 36 33 32 30 28 28 27 26 25 23 20 18 16 15 14 14 15 13 12 12 12 12 13 14 16 16 17 17 17
30 36 43 48 43 31 29 21 19 24 29 33 34 33 35 33 31 29 28 28 28 26 24 21 19 16 15 14 14 13 13 14 11 10 10 10 12 13 14 15 16 17 17
37 39 43 46 40 36 35 28 13 23 29 31 31 32 31 30 29 28 28 27 25 24 21 19 17 15 15 14 12 11 12 13 9 9 10 9 10 10 12 13 15 15 16
36 37 42 47 46 46 39 35 25 25 27 29 29 27 27 22 21 22 20 24 22 20 19 18 16 14 13 13 11 11 12 8 7 7 8 10 7 8 9 11 12 14 15
25 27 32 35 41 46 40 37 28 26 23 29 28 22 20 20 17 19 21 21 21 20 19 17 16 12 11 8 7 10 7 7 6 6 5 7 6 6 7 8 10 12 12
22 24 27 29 37 30 30 32 30 22 25 27 25 18 18 17 20 19 20 19 19 17 15 14 9 7 8 6 6 7 7 5 5 5 3 1 5 6 6 6 8 8 9
22 23 26 25 25 24 30 31 30 26 25 22 19 18 18 17 16 17 16 15 14 12 12 9 9 9 8 8 7 8 6 6 5 4 3 3 6 7 6 4 5 5 5
23 25 24 23 27 31 28 24 23 21 23 21 18 16 15 15 16 15 15 14 13 13 11 9 9 8 7 6 6 6 6 6 5 5 5 5 7 8 5 4 2 2 2
25 20 24 23 23 21 19 18 19 20 20 18 17 16 15 14 14 14 14 12 11 10 10 9 8 7 6 5 5 5 5 5 5 6 4 4 8 9 7 4 2 1 2
27 28 24 23 19 17 17 18 18 19 20 19 17 15 16 15 14 13 14 12 11 10 11 10 8 6 5 4 3 4 4 4 4 5 2 3 3 3 2 2 0 3 6
29 26 26 21 17 14 14 16 17 17 17 16 16 14 14 14 14 14 14 13 13 12 10 10 7 6 5 3 2 1 1 1 2 2 3 3 3 3 4 7 8 10 13
25 27 23 20 17 16 14 13 13 14 15 16 15 16 16 15 16 16 15 14 16 13 12 9 8 6 4 3 2 3 2 2 4 3 3 4 3 2 4 8 10 10 10
23 21 21 22 19 14 13 13 13 17 18 17 16 15 14 15 17 16 16 16 17 14 12 11 9 7 5 3 2 3 4 5 6 7 6 6 6 5 6 6 8 9 12
27 25 25 24 20 18 17 17 18 18 18 17 17 15 14 14 17 18 17 18 17 16 15 13 11 9 6 2 3 5 5 6 7 9 9 7 8 8 7 7 9 10 11
27 28 26 24 23 21 18 18 16 18 19 19 17 14 15 15 16 17 18 20 19 16 14 14 12 9 5 3 3 6 3 4 5 10 11 11 11 10 9 9 9 11 12
27 28 27 25 23 22 21 19 17 16 14 17 16 14 15 16 18 19 20 19 21 15 16 15 13 10 7 6 5 4 3 5 9 8 10 10 9 10 9 11 13 12 13
27 26 27 26 25 24 23 21 21 20 18 17 17 15 16 18 18 20 20 20 20 17 16 15 13 11 8 7 5 8 8 7 4 5 6 8 8 11 12 13 13 12 10
26 26 24 25 26 24 25 24 22 20 17 15 16 17 17 16 18 19 18 24 22 19 18 16 15 12 10 8 9 6 8 9 10 9 7 8 8 11 12 12 12 13 11
27 27 27 27 27 26 26 26 25 22 20 16 18 18 18 17 19 20 21 25 21 20 19 18 17 17 12 10 9 9 11 10 10 10 9 12 13 13 11 12 12 11 12

GFSSE_925_spd_063.txt.gz
Wind_Speed
17 23 24 25 31 34 33 33 32 32 30 28 27 25 24 25 27 29 31 29 28 27 26 25 24 24 23 23 24 23 24 25 23 23 24 24 23 22 22 23 20 20 22
24 24 25 27 30 34 34 34 34 32 30 29 27 25 26 29 30 31 33 30 28 27 25 25 24 24 23 23 23 23 22 21 17 20 26 25 22 22 22 22 21 20 20
22 27 28 29 31 34 34 34 34 32 30 29 28 28 30 31 32 31 31 30 27 27 26 25 23 23 22 22 22 22 21 21 19 16 18 19 20 20 19 19 21 20 19
22 27 27 31 32 35 35 34 33 31 30 30 31 32 32 30 30 30 31 30 26 25 24 24 23 22 21 21 20 21 21 19 16 14 16 17 18 19 18 18 18 20 18
22 28 28 36 36 37 36 35 34 32 30 31 33 32 32 30 29 29 30 30 26 26 24 23 22 21 21 19 18 19 18 16 16 15 17 17 17 19 19 20 19 19 19
21 29 32 34 36 35 35 33 31 32 32 33 33 31 32 30 30 31 32 29 26 25 23 22 22 19 19 17 17 16 14 11 14 16 17 18 18 19 19 20 20 20 20
18 11 38 33 32 33 33 31 30 31 32 32 31 32 33 33 34 33 32 29 25 25 24 22 20 18 17 16 16 15 16 19 14 15 16 16 17 18 18 18 19 18 18
14 9 13 30 25 26 26 27 27 28 29 29 31 33 34 32 31 30 29 27 26 24 23 20 19 17 15 14 15 14 13 11 12 13 13 13 15 16 17 17 17 18 18
13 17 29 22 30 30 30 22 19 21 25 26 29 32 33 31 29 27 26 26 25 23 21 19 17 15 14 14 13 15 15 15 12 11 12 11 13 14 15 15 16 17 17
26 39 39 41 34 32 28 22 16 15 22 28 29 30 31 28 28 27 25 24 23 21 19 18 15 13 13 12 11 15 12 11 9 9 10 10 11 11 13 14 15 15 16
25 31 42 45 40 40 34 35 38 26 24 26 28 29 28 25 24 21 21 23 21 20 18 16 13 12 11 12 12 14 10 6 7 8 9 9 8 9 11 11 12 13 14
22 20 30 42 39 41 32 43 36 29 27 23 25 24 22 20 20 19 21 19 18 17 16 14 13 12 7 6 5 8 6 6 6 7 7 9 6 7 8 9 10 11 12
20 23 25 29 31 30 30 32 28 29 24 25 24 21 20 15 20 19 18 16 16 14 12 12 8 4 5 5 5 6 5 5 5 5 5 5 8 6 7 6 6 7 8
17 17 24 26 29 28 32 26 28 25 24 24 19 22 19 16 18 18 16 14 13 10 10 7 6 6 7 7 5 6 6 5 4 4 7 3 7 7 5 6 4 3 4
20 22 26 26 19 23 23 26 27 24 22 21 18 19 18 18 16 17 15 15 13 11 10 8 8 7 6 5 4 5 4 5 5 4 5 5 7 8 5 4 3 1 0
20 21 23 18 21 28 28 26 22 20 17 14 14 15 17 16 15 14 15 14 12 12 10 8 7 6 5 5 3 3 3 3 4 3 6 6 10 12 8 4 2 1 2
22 19 20 20 23 25 21 18 17 16 16 15 15 16 15 14 15 13 14 13 12 11 11 8 8 7 5 4 4 3 2 2 3 3 3 8 8 11 9 8 7 6 7
23 27 28 27 22 17 19 19 17 16 16 19 18 16 16 15 15 14 14 13 12 12 11 10 10 8 7 7 5 4 1 2 2 2 2 3 3 2 6 5 7 12 12
33 29 30 26 22 19 18 17 15 18 18 18 17 17 17 15 15 14 14 14 15 12 12 11 9 9 8 7 6 5 3 2 4 3 4 4 4 3 3 4 7 10 8
27 26 25 23 21 19 18 16 16 16 18 18 18 18 17 17 16 15 14 14 14 14 12 11 11 10 8 7 6 5 5 5 5 6 7 7 7 6 6 6 8 9 8
25 26 25 24 23 20 18 18 19 19 19 19 19 18 15 15 16 16 15 16 17 16 14 14 12 10 9 7 7 8 10 9 8 8 9 9 8 9 8 8 8 7 10
27 27 24 24 23 22 21 20 19 19 20 20 19 17 15 14 15 18 18 18 18 17 17 16 14 12 12 9 7 4 4 7 9 9 10 10 10 11 11 10 7 10 10
29 29 27 26 26 24 21 19 18 17 17 19 20 19 17 18 18 19 19 19 21 19 19 19 17 16 13 10 6 3 2 2 15 9 11 11 10 11 11 10 11 11 11
28 29 28 27 26 26 24 22 22 21 21 20 21 20 17 18 19 19 19 20 20 21 20 22 19 17 15 13 10 5 4 2 3 6 5 11 13 11 13 13 12 12 11
30 29 30 29 28 26 26 25 22 21 20 19 20 20 19 20 20 21 23 24 21 22 21 21 20 18 15 13 12 6 8 9 13 11 8 11 11 12 12 11 12 12 13
29 29 28 28 29 28 26 27 25 24 23 22 22 17 17 19 18 21 22 24 26 24 24 21 18 16 14 12 13 10 10 7 9 11 9 14 15 17 16 11 12 13 12

GFSSE_925_spd_066.txt.gz
Wind_Speed
18 24 27 29 33 33 32 32 31 31 30 28 27 26 25 26 29 32 29 30 29 27 26 25 26 26 26 26 26 26 27 26 27 28 28 25 25 24 24 25 24 25 24
22 16 26 27 32 31 32 31 31 31 30 28 27 26 27 30 33 31 30 30 29 27 25 25 26 25 25 26 26 25 22 23 28 30 28 25 24 23 24 24 23 23 24
31 10 22 30 32 32 32 32 32 30 29 28 27 28 30 34 33 31 30 30 29 27 25 25 24 24 24 24 24 22 18 14 10 15 25 23 24 21 21 23 23 21 21
12 20 20 27 33 33 32 32 31 30 30 28 29 31 32 35 34 32 31 30 29 28 25 24 22 23 23 23 24 21 18 24 29 27 26 22 20 22 22 22 21 22 21
29 27 25 29 31 35 33 33 32 31 30 30 32 32 33 34 35 31 30 30 29 27 24 23 21 22 21 21 21 17 15 19 23 18 22 22 21 21 20 21 21 21 21
24 16 23 30 35 39 35 33 32 32 31 31 31 30 29 31 34 31 30 29 28 26 23 22 21 20 19 18 16 15 17 17 27 23 21 20 22 19 20 21 20 21 20
24 13 15 11 32 38 39 37 35 34 34 31 31 29 28 30 33 31 30 29 27 25 23 22 19 18 17 17 15 16 21 26 22 21 19 20 20 19 20 20 21 21 20
29 21 22 10 34 25 40 40 37 37 34 32 30 30 32 34 33 31 29 28 26 24 22 20 18 16 16 17 15 16 16 18 19 18 16 19 17 17 18 19 20 20 20
28 26 22 26 25 38 38 34 28 36 34 33 32 32 35 37 34 30 27 27 26 23 21 19 17 15 15 17 17 17 16 17 21 21 19 17 16 16 16 18 18 19 19
19 18 26 28 29 23 28 30 19 24 30 32 32 34 33 32 30 27 26 26 24 21 19 18 15 14 15 16 17 12 13 15 17 13 12 15 13 14 14 15 16 16 17
21 22 32 32 29 29 27 29 29 15 23 27 29 29 31 29 26 24 25 24 22 20 17 16 13 13 15 16 15 12 12 13 14 14 12 12 11 11 12 13 14 15 15
19 18 21 23 27 31 29 32 34 26 27 25 29 29 29 29 23 20 23 22 20 17 16 16 13 11 9 9 10 9 10 10 9 8 11 13 10 9 9 11 12 13 12
17 20 25 29 31 26 27 31 30 31 25 28 28 25 30 23 19 21 20 19 18 16 17 14 9 6 6 5 6 9 7 7 10 9 10 10 10 9 8 7 8 9 10
21 21 26 31 29 26 28 27 27 27 23 30 19 27 25 22 18 20 16 15 15 11 13 9 8 7 6 5 7 8 7 8 8 5 5 10 11 9 7 7 6 5 5
19 20 23 23 21 28 31 27 25 22 29 20 20 19 21 21 16 18 15 13 13 12 9 8 7 8 7 6 5 6 6 7 8 5 3 8 11 10 6 5 4 3 1
19 23 22 22 25 33 34 25 27 22 21 19 18 18 18 20 16 17 18 15 15 15 11 10 8 8 9 5 6 5 6 4 5 4 6 7 10 12 9 6 4 3 1
20 25 22 16 27 26 24 31 26 23 20 17 17 18 17 16 17 14 16 15 13 11 12 11 12 9 8 9 7 6 3 5 3 4 2 3 6 11 10 9 9 8 9
25 23 21 19 27 27 26 23 19 19 20 19 19 19 17 17 17 15 18 16 14 13 14 11 12 10 11 11 10 6 5 4 4 3 2 6 7 9 14 10 7 6 9
23 23 24 25 32 30 29 33 24 26 20 19 18 18 19 20 18 20 17 19 17 15 14 13 12 13 11 9 8 8 7 6 7 5 7 8 5 4 6 7 5 6 8
28 34 33 36 35 28 28 22 18 20 19 19 21 21 21 24 20 20 18 17 18 18 17 18 14 12 10 10 12 11 9 9 8 8 10 11 10 11 8 7 3 9 6
34 35 34 32 28 26 26 21 21 23 24 22 23 24 27 25 25 22 18 18 21 20 20 18 15 13 13 8 7 9 13 17 14 11 12 14 13 13 11 13 10 6 5
34 35 31 28 28 26 27 24 23 22 24 24 24 25 25 24 22 23 22 21 23 22 21 19 19 16 16 15 10 8 1 6 13 14 14 17 15 15 12 8 11 9 9
31 30 30 30 29 29 27 28 26 26 26 27 27 24 25 23 21 22 21 21 22 22 21 23 24 22 22 19 18 6 2 3 3 11 23 17 13 12 12 13 12 10 9
33 34 33 34 34 33 29 27 27 22 20 22 23 26 24 24 22 20 22 23 22 23 22 22 26 29 24 20 18 14 8 2 2 3 1 10 20 19 19 18 18 14 10
30 35 33 31 34 33 33 27 27 23 23 24 24 22 22 22 18 20 19 22 23 22 27 21 26 28 25 22 21 17 10 7 8 9 3 11 9 20 23 21 21 17 11
32 31 34 30 28 28 32 32 27 27 24 20 21 21 21 19 19 20 21 26 29 29 28 26 23 23 25 17 13 16 12 6 3 8 2 9 13 15 12 11 16 14 12

GFSSE_925_spd_072.txt.gz
Wind_Speed
18 25 24 24 38 18 24 21 26 29 29 31 32 36 40 40 41 39 38 36 35 33 31 31 32 32 31 31 30 30 30 31 29 28 26 25 25 24 24 26 27 25 24
15 23 27 28 31 25 22 22 25 27 29 31 35 38 38 39 40 40 38 36 34 32 30 30 31 31 30 29 30 31 26 26 28 26 25 25 24 22 23 25 25 26 26
16 22 24 28 29 20 9 24 28 30 31 33 36 39 38 38 39 39 38 36 34 32 31 31 30 29 26 24 19 18 23 25 27 27 27 26 24 23 22 23 24 25 26
15 20 27 30 35 26 13 19 32 32 33 35 39 41 43 42 40 40 38 35 34 33 31 30 29 28 28 26 26 25 21 22 23 25 27 26 25 22 21 22 22 23 22
23 15 24 33 12 12 32 33 34 37 37 39 41 41 41 40 41 40 38 35 33 31 28 28 30 29 24 23 28 24 20 21 23 26 27 26 25 21 21 22 22 22 22
13 23 32 22 19 19 23 36 30 40 42 44 41 40 41 40 40 39 37 35 32 30 29 31 29 27 23 27 25 24 24 24 23 26 27 24 25 22 22 22 23 23 22
13 15 21 22 23 22 23 27 38 42 46 46 45 41 40 40 40 38 36 34 33 31 31 30 28 27 26 29 26 23 22 23 24 26 26 25 23 21 21 22 23 22 22
17 23 30 37 21 6 16 7 41 39 50 42 46 42 41 40 39 37 34 33 31 30 28 27 27 28 28 24 24 22 23 23 23 24 24 23 21 21 21 22 22 22 22
18 19 22 23 16 14 13 15 43 32 38 46 43 42 40 39 38 36 34 31 29 27 27 25 25 26 27 23 20 21 21 20 21 21 23 22 20 20 20 20 21 21 20
21 24 20 19 19 17 17 17 30 30 25 37 41 39 38 37 36 35 32 30 27 26 25 23 24 23 24 24 22 20 19 18 18 19 21 20 18 18 19 19 19 19 19
22 25 24 20 22 22 25 34 37 34 23 29 38 39 37 36 34 33 31 28 26 25 24 24 23 20 22 24 20 19 16 17 16 17 18 19 17 17 17 17 17 17 17
17 19 22 26 30 35 39 42 46 43 28 27 35 37 35 34 34 32 29 27 25 24 25 25 22 18 18 18 18 16 14 14 14 14 16 17 15 15 15 15 15 15 14
17 20 26 31 34 38 35 40 44 39 30 28 30 30 32 33 33 32 30 28 25 24 23 19 15 16 16 14 15 16 14 13 12 12 14 16 14 14 13 13 13 12 12
19 22 27 28 29 33 36 32 39 40 33 33 29 28 32 33 33 32 29 27 25 23 20 16 16 15 13 13 12 14 12 11 10 10 13 13 14 12 11 10 9 9 8
20 23 27 27 32 33 33 37 36 35 37 38 37 32 34 35 33 30 29 26 24 20 15 15 12 11 11 13 13 10 10 10 10 10 10 12 12 11 10 8 7 6 5
20 22 25 28 33 37 39 39 35 33 35 35 35 33 34 33 32 28 28 25 22 17 13 13 9 11 11 11 12 9 8 8 8 8 9 10 10 11 11 10 8 6 5
20 20 26 28 34 31 35 36 34 35 31 36 32 30 30 31 28 29 24 22 20 17 14 13 10 10 11 10 10 9 7 8 9 9 9 9 13 13 13 11 9 6 2
21 23 23 25 31 35 37 35 34 37 28 33 30 28 26 26 27 25 23 21 18 17 16 15 13 13 12 11 11 12 10 9 8 9 9 10 15 17 15 11 7 5 4
24 23 18 25 31 32 31 34 30 29 27 30 26 27 25 24 26 22 20 18 19 20 19 17 15 14 17 15 13 13 15 12 10 10 12 14 16 15 14 11 11 10 9
24 27 20 25 29 34 34 29 28 22 25 26 25 23 28 25 25 20 18 20 21 23 21 19 19 19 17 17 17 17 18 17 15 16 15 15 15 15 15 13 12 12 11
23 23 21 25 30 32 31 29 30 26 27 25 28 28 27 26 24 22 22 24 24 25 23 23 23 21 21 18 16 17 18 20 22 20 19 20 19 18 18 16 16 16 16
28 28 25 29 32 32 32 33 26 28 30 29 26 28 28 27 24 25 26 28 27 26 26 27 26 23 21 19 13 5 2 9 22 24 21 23 22 22 22 23 21 21 20
28 30 30 34 35 36 32 31 27 30 29 31 30 30 29 28 29 30 31 30 28 29 29 27 25 25 23 20 13 4 2 4 2 11 22 21 21 21 21 23 23 22 21
33 33 30 36 38 39 31 32 30 28 23 26 31 30 31 33 33 31 31 30 30 29 30 30 26 28 27 21 17 15 9 4 1 2 4 8 17 21 22 23 24 25 25
33 37 37 37 37 36 36 32 33 29 30 28 32 33 35 34 34 35 35 33 32 33 33 31 29 28 30 27 27 13 14 10 8 4 2 4 5 10 11 15 23 25 25
33 36 34 34 35 36 36 39 36 34 33 32 34 35 38 36 37 39 37 36 37 36 34 31 30 27 31 31 30 29 25 11 9 7 4 7 9 12 12 17 15 20 23

GFSSE_925_spd_075.txt.gz
Wind_Speed
9 20 20 24 28 31 33 37 39 31 40 43 42 41 40 38 39 38 36 36 36 34 31 30 31 29 29 28 28 28 29 27 26 24 25 24 24 24 25 25 25 23 24
12 21 24 23 27 30 30 30 34 34 36 41 39 41 39 38 39 39 38 38 36 34 32 30 30 29 29 28 27 28 30 29 27 26 25 24 24 24 24 26 28 26 25
14 17 18 21 20 22 26 29 30 35 35 37 39 40 38 38 38 39 40 39 36 34 31 30 28 28 28 25 26 26 25 25 26 25 28 27 24 23 24 25 26 26 25
16 20 19 15 9 16 20 24 31 29 29 35 37 38 37 36 35 36 38 38 36 34 32 29 26 24 21 22 24 24 24 26 27 28 29 27 24 22 23 23 23 23 23
23 22 26 23 8 7 6 14 20 27 22 35 38 38 37 37 31 36 39 38 36 33 30 28 24 26 28 26 23 24 26 27 27 27 27 27 26 22 23 23 23 23 22
22 16 21 29 35 15 15 15 22 25 30 26 38 40 39 40 32 36 38 37 35 33 29 25 25 28 29 26 24 25 27 27 27 28 28 26 26 23 23 23 23 23 23
13 17 22 23 16 17 18 16 20 30 32 32 41 40 38 38 34 36 35 36 35 32 29 26 27 31 28 27 26 26 27 26 28 29 28 27 25 23 23 22 23 23 23
9 13 20 26 21 16 14 11 20 28 37 32 40 39 39 37 34 35 35 36 35 35 33 28 29 30 28 26 25 26 25 25 27 28 27 26 24 22 23 22 21 22 22
11 17 21 25 22 15 17 27 28 32 45 44 40 40 40 39 35 35 33 35 35 35 33 30 28 28 27 24 23 24 23 23 25 26 26 25 22 22 22 21 20 21 22
15 22 25 24 22 21 16 15 20 52 41 39 38 39 41 35 33 33 32 33 33 32 33 30 28 25 24 22 22 21 22 21 22 25 25 23 21 21 21 20 20 20 20
16 14 16 17 18 18 11 17 32 37 41 39 37 38 39 37 33 33 32 32 33 32 32 29 28 26 25 22 20 19 19 20 21 23 24 22 21 21 20 19 19 18 18
18 17 17 18 19 24 25 33 42 40 35 35 36 40 39 36 33 31 30 31 32 32 31 29 25 24 24 24 21 18 17 18 18 20 22 20 19 19 19 18 17 16 16
17 19 21 24 27 32 34 40 40 41 33 30 37 40 39 36 33 32 31 30 31 30 28 27 24 21 19 19 19 16 16 16 16 18 19 18 17 17 17 16 16 15 14
16 20 24 26 26 29 33 36 37 34 34 34 39 39 39 36 33 31 30 29 30 28 24 22 22 20 18 17 17 16 15 14 14 15 16 17 16 16 15 14 13 12 11
20 22 24 28 28 30 30 31 32 39 35 34 34 38 37 33 31 29 28 28 27 24 21 21 20 17 16 16 14 13 14 13 13 13 14 13 14 13 12 11 10 8 8
20 23 23 27 29 33 32 35 32 32 34 37 34 33 35 37 34 32 29 27 24 21 20 18 17 16 14 13 13 12 12 12 11 11 13 13 12 12 11 9 8 6 6
20 24 24 29 30 31 35 37 30 29 32 36 38 36 36 35 34 31 28 26 23 19 19 16 15 15 15 13 12 11 11 11 10 11 13 13 13 11 9 11 9 8 6
20 24 24 26 33 29 27 28 29 30 34 38 40 34 33 33 31 30 27 25 22 19 18 16 16 16 14 14 14 12 11 11 10 12 12 12 13 13 13 14 11 8 5
21 21 25 24 30 28 26 25 26 30 31 32 34 30 31 32 30 28 28 25 22 20 18 17 17 16 17 15 13 14 13 13 11 12 12 12 14 15 17 15 13 10 7
24 23 24 25 31 28 25 22 22 24 27 32 31 30 30 30 28 27 25 25 23 20 19 19 17 16 15 15 14 14 15 15 15 14 15 14 15 17 19 18 16 13 11
24 25 20 27 26 30 26 28 24 24 26 31 29 27 28 26 29 26 26 23 22 20 22 20 19 19 16 16 13 14 15 19 20 19 18 18 20 21 20 19 17 16 15
22 24 21 23 29 30 28 26 21 25 26 32 29 26 26 27 26 26 26 24 22 21 22 22 22 21 18 16 8 4 2 9 22 25 24 23 24 24 22 20 19 18 19
22 24 23 24 28 28 28 24 21 19 23 26 27 28 27 26 26 27 25 24 24 24 26 26 27 26 22 19 20 8 1 4 2 8 25 28 25 24 23 23 24 24 23
25 26 27 26 27 30 30 28 25 22 17 24 27 27 28 29 28 28 27 26 28 28 29 29 27 29 26 22 18 19 11 5 3 2 5 14 20 22 23 24 24 28 29
26 30 31 28 28 29 32 29 30 22 22 23 25 26 28 29 31 31 31 30 31 32 32 31 32 32 31 27 25 13 14 12 10 3 3 6 11 15 16 15 16 19 24
22 27 32 31 32 33 36 36 32 34 29 29 26 30 33 33 33 33 37 35 33 35 35 35 34 34 33 31 30 28 22 9 11 8 3 7 7 9 14 14 16 18 18

GFSSE_925_spd_078.txt.gz
Wind_Speed
8 11 12 15 16 21 25 27 34 38 39 41 46 42 38 36 35 34 33 33 34 32 29 29 29 27 27 26 26 27 28 27 26 25 25 25 25 25 25 26 24 27 27
4 15 15 16 18 20 22 25 31 41 40 42 41 41 39 36 35 33 33 33 33 31 30 29 29 28 26 27 28 30 27 26 25 26 25 24 26 27 29 28 25 22 22
11 18 20 19 19 22 21 20 26 35 40 41 41 41 38 36 34 34 32 33 34 32 30 29 29 28 27 25 27 27 27 29 28 27 25 26 25 26 27 27 27 26 26
10 18 23 24 24 20 16 13 17 29 39 39 39 38 38 37 35 35 34 33 34 32 29 29 29 28 26 25 26 26 26 29 30 30 29 27 25 25 25 25 25 24 24
10 20 25 28 31 26 14 3 9 21 31 37 39 39 37 38 36 35 35 33 32 31 28 26 24 26 25 24 26 27 28 29 29 30 29 28 26 25 24 25 24 23 24
12 13 23 26 29 30 24 25 8 15 21 30 35 37 36 36 34 34 35 33 31 29 27 26 30 27 24 24 27 27 28 29 29 30 30 27 27 25 25 25 26 24 25
9 16 22 26 24 21 21 31 33 29 30 31 36 36 35 34 34 34 36 31 29 27 27 29 30 29 26 26 27 28 28 30 31 32 30 28 26 25 26 25 25 24 24
6 13 22 24 19 17 26 27 31 36 33 33 34 37 36 37 34 34 37 31 29 27 30 31 30 28 27 28 28 28 29 29 30 31 29 27 24 25 25 25 25 24 24
6 9 28 25 23 24 26 28 32 34 35 38 38 39 35 39 36 36 36 33 29 27 29 32 30 29 29 28 27 27 28 28 29 29 28 26 23 24 24 24 24 23 23
9 13 25 28 24 22 22 23 30 38 38 40 43 40 36 38 36 38 36 33 29 29 30 32 30 27 27 27 26 26 27 26 28 28 27 25 23 22 23 24 23 23 22
8 15 23 27 19 13 8 5 18 42 39 35 37 40 39 40 37 35 37 35 31 31 31 31 29 26 26 25 24 23 24 25 25 26 25 23 21 21 21 22 22 21 20
9 11 15 22 19 16 7 6 14 32 41 40 39 40 40 39 37 36 35 35 32 30 29 29 28 27 26 25 23 21 21 21 23 24 23 21 20 20 20 20 19 18 18
11 11 12 13 16 15 15 24 28 38 44 42 37 40 39 39 38 37 35 34 32 30 30 31 30 27 24 22 21 20 20 20 21 21 21 20 19 18 18 18 17 16 16
13 12 13 14 18 19 24 26 32 29 39 43 37 34 39 39 37 36 35 34 30 28 29 28 27 25 22 19 20 19 18 18 19 20 19 18 18 16 16 16 15 14 14
16 15 15 19 20 21 24 28 30 35 41 37 37 35 37 37 36 34 33 33 28 26 25 26 25 23 21 21 17 16 17 17 17 18 18 17 17 16 15 14 13 12 11
17 19 18 20 22 22 25 28 27 35 39 37 37 39 39 39 36 33 31 30 26 24 24 22 20 20 21 18 17 15 15 15 16 16 16 15 15 15 14 12 11 10 9
18 20 20 21 24 24 26 23 24 31 39 35 35 37 37 36 33 31 31 26 23 23 22 19 19 20 19 17 16 16 14 15 14 14 14 15 14 13 13 12 11 10 8
18 21 21 22 25 20 25 23 24 25 32 33 34 36 36 33 34 34 28 27 23 22 20 20 21 19 17 16 16 15 13 13 12 13 14 15 16 15 13 13 13 11 7
19 20 20 21 24 22 22 22 23 22 23 28 27 28 26 29 30 29 30 27 22 20 19 19 19 18 16 15 12 11 11 12 11 12 14 16 17 16 16 15 16 12 9
18 20 21 21 25 25 21 20 22 21 19 30 27 24 26 29 28 27 26 25 22 20 21 18 17 16 16 13 11 10 11 12 12 13 15 15 17 18 17 17 16 15 12
19 20 22 24 27 28 26 22 24 25 25 26 34 35 28 29 26 24 25 24 22 23 20 18 17 16 15 14 10 9 12 15 17 18 17 18 19 19 20 19 19 18 17
20 20 21 22 28 29 28 24 17 25 27 31 31 32 30 30 27 27 27 25 25 24 22 23 21 17 14 16 8 3 1 6 20 23 23 23 23 22 23 22 23 23 21
20 21 21 22 24 27 25 25 18 23 19 27 32 30 27 26 27 26 25 25 25 26 26 26 24 22 19 19 16 7 1 4 2 7 21 28 27 25 26 26 26 26 26
22 22 23 24 25 25 27 31 25 25 18 20 31 31 26 27 26 26 27 28 28 30 27 28 24 25 22 21 19 21 13 6 3 2 6 13 19 29 28 26 28 25 26
21 26 27 28 25 29 29 32 31 26 28 27 30 29 29 29 30 29 28 31 30 30 30 27 26 27 28 28 26 14 20 15 13 6 4 8 12 19 25 26 26 24 26
21 26 29 28 27 29 34 33 34 33 30 28 31 32 33 33 32 32 32 32 31 30 29 29 30 30 32 33 31 28 21 10 14 9 3 10 8 9 16 16 16 14 14

GFSSE_925_spd_084.txt.gz
Wind_Speed
8 11 15 13 14 18 26 29 31 31 31 33 34 34 32 32 31 34 30 30 29 25 23 24 24 23 21 21 22 24 23 23 23 24 24 24 25 25 25 27 25 25 26
2 11 15 15 15 14 26 31 32 32 30 33 34 34 33 31 31 33 30 31 32 29 24 23 23 23 22 23 24 24 26 26 23 25 24 24 24 23 25 26 24 23 24
6 9 13 14 17 20 22 30 33 32 31 33 35 36 34 34 31 33 34 34 34 30 25 23 24 24 24 25 25 26 27 26 28 27 24 22 22 23 24 24 24 24 23
5 11 13 16 17 18 23 26 30 32 32 35 35 35 35 35 34 35 34 32 31 30 26 24 24 24 23 27 26 27 28 28 29 25 22 22 20 23 22 23 23 24 23
5 13 12 17 18 18 21 24 26 28 33 32 32 34 35 36 36 36 34 31 32 29 27 25 25 24 24 26 25 27 28 27 23 19 20 19 20 21 22 22 22 23 23
5 11 13 16 19 20 19 24 15 17 24 23 24 23 38 38 37 33 33 32 33 30 28 25 25 23 24 24 25 26 28 24 19 19 19 21 19 21 22 22 23 23 23
5 13 17 19 20 23 22 25 31 29 28 27 18 36 37 40 38 36 35 34 33 32 30 27 24 24 24 25 26 28 27 20 19 20 20 20 21 22 22 21 21 23 22
6 13 21 21 24 24 23 23 25 32 24 28 11 45 40 39 40 38 37 36 33 32 31 26 25 25 24 25 26 27 24 21 19 20 20 19 22 22 22 21 21 21 21
5 11 20 23 22 21 16 13 20 23 19 17 25 32 34 39 39 39 37 37 33 29 28 27 26 24 24 25 27 26 25 18 19 20 20 20 21 21 21 21 21 20 21
4 10 17 25 22 18 15 19 15 15 19 24 25 29 28 33 38 39 38 36 34 30 30 28 26 25 25 26 27 27 26 21 19 19 19 20 22 21 21 20 21 20 20
5 9 14 23 29 27 16 17 21 22 22 20 29 29 32 32 35 38 32 35 34 33 30 30 26 26 26 27 28 25 19 16 17 16 19 23 22 20 20 20 20 19 19
7 9 12 19 27 26 17 19 20 20 27 29 32 35 39 36 34 29 32 35 36 33 30 30 28 27 23 20 20 17 13 14 15 16 19 22 20 19 19 18 18 18 17
6 7 11 18 23 21 21 19 16 16 21 25 34 50 47 41 36 30 31 31 34 30 26 26 27 20 18 18 19 11 15 13 13 15 21 22 19 18 18 17 17 16 16
7 6 9 12 16 17 14 14 15 12 15 20 15 30 44 43 37 30 30 28 31 28 27 24 21 16 17 15 14 14 14 12 13 14 18 19 18 17 17 17 16 15 14
7 7 7 10 13 14 14 12 12 12 17 28 28 35 45 35 32 31 27 28 29 26 25 23 18 17 16 15 14 14 13 12 13 14 15 19 18 16 16 15 14 13 12
7 8 8 9 10 7 8 12 13 17 29 38 37 41 42 38 32 30 26 24 25 26 22 21 20 18 16 14 14 13 12 13 13 13 14 16 17 16 15 14 13 12 10
9 9 9 9 8 7 7 11 12 24 31 39 39 39 38 39 36 32 26 25 25 24 22 19 18 17 15 14 12 12 11 11 11 13 14 13 14 16 15 14 14 12 10
10 10 10 9 10 8 11 19 25 24 35 35 38 40 31 34 37 30 31 32 23 22 22 17 17 16 15 14 13 12 11 11 11 11 12 12 13 13 17 16 15 14 13
12 12 11 11 12 11 15 24 32 35 39 35 31 27 26 31 35 34 33 30 28 26 22 16 15 15 14 13 13 11 11 12 12 13 13 14 13 13 13 17 17 16 16
13 12 12 13 14 14 17 29 30 29 32 36 24 20 27 33 33 27 27 27 22 19 17 16 16 13 13 12 10 11 10 11 12 13 14 15 14 15 14 12 16 17 20
13 13 16 16 15 18 19 26 27 28 26 29 27 26 30 28 24 26 25 26 20 21 21 19 15 14 10 9 9 9 9 11 13 13 14 15 16 17 16 16 16 15 19
16 16 20 21 22 22 21 21 25 29 27 27 28 30 31 23 25 25 22 23 25 22 17 14 14 14 12 14 9 10 5 11 17 19 18 17 17 17 19 23 24 22 18
19 19 21 22 26 23 23 26 25 29 26 28 30 31 30 24 24 23 29 22 26 18 16 17 16 15 14 14 16 10 5 6 8 13 20 18 17 18 18 19 24 23 23
21 20 20 22 25 26 26 26 28 35 30 29 30 31 32 25 23 23 23 21 21 18 18 19 19 18 16 16 16 20 16 10 5 4 10 15 17 19 20 20 22 24 24
21 23 22 23 24 26 26 30 32 27 30 25 25 27 32 28 21 22 21 22 18 21 20 19 18 19 18 19 17 15 17 18 15 13 9 10 12 17 20 19 20 21 22
22 23 25 25 24 29 30 29 31 32 28 25 25 30 34 29 24 19 21 19 19 19 18 17 18 18 20 20 20 19 19 15 15 16 12 17 14 12 16 18 17 20 21

GFSSE_925_spd_087.txt.gz
Wind_Speed
3 7 9 14 12 16 21 24 26 26 25 26 26 27 29 27 27 26 26 26 26 27 25 22 21 21 21 20 21 20 23 24 25 27 26 26 25 25 26 28 27 27 28
2 4 8 14 11 13 21 24 25 25 24 26 27 29 30 28 27 26 24 27 29 26 26 26 21 20 21 21 21 22 24 25 23 25 26 25 24 23 25 25 24 25 26
3 5 5 13 12 10 18 24 26 25 24 27 28 30 29 30 29 27 27 28 30 28 25 26 24 20 20 23 25 25 24 22 23 22 23 20 20 21 22 23 23 24 23
3 6 7 13 14 14 14 20 25 26 26 30 31 31 30 30 29 29 29 29 30 28 25 25 24 21 22 27 27 25 30 26 25 21 20 19 17 20 21 22 23 23 24
1 6 6 13 16 15 17 18 20 25 27 32 34 33 32 31 31 31 32 30 29 28 27 26 24 22 24 26 26 27 28 25 22 22 17 19 17 19 20 22 23 23 24
3 5 9 12 14 14 14 15 18 15 19 28 31 32 32 30 33 33 33 30 29 28 27 27 23 23 24 25 28 27 23 19 14 17 17 18 19 19 21 23 23 23 24
5 5 8 12 12 14 13 18 24 14 28 20 17 17 27 27 32 37 34 31 26 28 28 26 25 24 24 25 27 26 19 13 17 17 17 16 19 19 20 22 22 22 23
5 6 8 11 14 14 17 22 21 21 29 18 34 26 23 26 28 35 34 32 29 28 27 25 26 25 24 26 27 22 16 18 17 18 17 18 20 20 20 22 21 22 21
5 7 8 11 13 14 17 16 22 29 23 29 33 29 28 38 40 34 35 34 32 29 28 27 27 27 26 27 28 22 21 12 17 17 18 18 19 19 21 21 21 22 21
5 6 8 11 10 11 11 16 15 17 23 25 31 23 21 38 39 35 34 34 32 29 28 26 27 27 27 27 26 22 18 17 17 18 16 18 19 19 20 21 20 20 20
5 6 8 11 14 12 12 13 15 18 16 16 25 22 19 31 40 36 31 37 31 28 28 27 28 27 28 27 25 26 17 15 16 16 16 20 18 18 18 19 19 19 19
8 6 6 10 13 16 16 12 14 16 17 20 19 17 21 27 31 30 33 35 32 29 29 28 27 26 24 23 22 14 7 13 14 14 18 20 17 17 17 17 17 17 17
8 7 7 9 13 13 15 11 12 12 21 26 20 22 27 32 26 27 34 32 32 29 26 24 28 21 21 22 18 9 14 11 15 16 19 18 17 17 16 16 16 16 15
7 8 6 8 12 15 15 18 12 12 16 21 26 29 28 34 33 31 30 28 26 28 26 26 21 20 19 19 12 13 13 13 15 16 19 19 17 17 16 15 15 15 14
9 7 7 7 9 13 12 12 14 14 11 19 23 29 32 40 39 34 33 28 26 26 25 24 19 20 18 17 13 14 12 12 14 16 17 18 17 17 15 14 13 13 12
8 11 8 6 5 6 10 14 11 12 12 18 23 31 46 44 39 36 29 29 25 26 25 21 20 19 17 16 15 14 12 14 14 15 15 17 16 16 16 15 13 12 12
9 10 9 7 5 6 7 8 12 11 16 25 33 33 43 52 40 38 28 27 24 24 23 19 20 17 17 16 15 14 13 13 13 14 16 15 17 16 16 16 14 12 11
10 11 10 8 7 6 5 8 10 15 22 37 41 37 41 43 37 34 24 21 24 22 21 20 19 18 16 16 15 14 13 13 13 13 14 14 14 14 17 17 16 14 12
11 11 11 10 10 7 11 15 21 28 25 32 37 37 41 38 35 28 21 21 23 23 20 20 19 17 16 16 15 13 13 13 13 13 13 14 15 15 15 18 19 17 16
11 12 12 13 12 10 20 24 27 30 32 32 31 34 38 32 37 27 27 30 25 21 18 19 17 16 16 15 14 13 12 11 12 13 15 15 14 15 15 19 20 19 20
13 15 15 16 17 15 23 23 26 28 28 30 39 40 34 27 31 27 29 26 25 23 21 20 18 16 14 12 11 11 10 10 11 14 15 15 16 16 17 16 18 18 24
16 16 17 17 20 20 23 25 25 28 28 29 30 29 28 29 28 24 26 29 29 24 23 20 18 17 14 14 13 12 6 9 16 17 16 17 18 17 18 19 20 20 16
17 18 19 19 20 19 26 29 25 25 23 22 26 28 26 29 29 21 23 27 25 22 21 18 16 16 15 16 12 6 3 4 6 15 19 18 17 18 19 19 21 21 22
20 18 19 20 22 22 29 29 33 31 26 25 28 29 27 27 21 23 21 19 24 21 15 19 18 16 14 13 11 13 12 10 3 3 10 18 17 19 20 19 20 23 25
21 21 22 21 22 24 25 30 31 30 27 24 24 28 27 21 22 26 20 22 18 17 21 19 16 14 14 13 13 11 13 13 14 10 7 11 16 20 20 22 20 19 24
22 22 23 24 25 26 28 30 32 31 30 26 26 25 25 23 27 24 21 21 17 19 20 19 15 15 17 15 15 15 15 12 13 14 10 15 16 16 23 22 23 21 24

GFSSE_925_spd_090.txt.gz
Wind_Speed
10 8 8 11 11 12 14 14 14 15 16 17 18 17 19 20 21 22 22 22 22 24 23 22 22 21 20 22 24 26 28 31 31 30 28 27 26 27 28 29 30 31 30
11 10 7 10 11 13 13 14 16 17 17 18 19 21 22 22 24 23 22 22 26 25 24 25 23 23 21 24 24 26 28 30 30 29 28 26 24 24 25 26 27 27 27
7 2 4 7 9 9 14 14 16 17 17 20 21 23 24 23 24 25 24 25 26 26 26 25 23 24 23 24 25 24 26 27 26 25 24 22 22 21 21 22 24 25 25
6 4 3 5 10 9 11 16 19 20 20 22 23 26 27 25 26 25 27 27 27 27 25 25 24 23 26 26 26 25 26 26 24 24 22 21 19 20 20 22 23 24 24
5 5 5 5 7 11 12 14 18 21 22 24 25 26 28 27 28 28 30 29 27 25 25 24 26 25 28 26 28 30 28 24 20 21 21 20 19 19 20 22 23 24 25
4 5 5 7 8 12 15 17 17 19 20 18 17 27 27 31 29 30 31 29 26 26 23 23 26 29 29 28 28 29 26 24 19 24 23 21 19 20 23 23 23 25 25
4 6 4 8 10 11 12 16 21 22 24 22 16 44 29 25 27 30 31 30 28 28 23 23 27 30 30 30 26 23 21 17 17 23 21 20 19 20 21 22 22 23 24
4 5 6 7 9 10 11 15 21 22 18 18 20 15 22 16 25 21 27 29 31 29 26 22 27 28 31 30 24 17 13 14 22 23 23 20 19 20 20 21 22 22 24
3 5 5 7 9 10 12 15 18 24 15 15 16 25 21 25 26 29 26 28 31 30 25 24 25 27 31 30 21 16 16 18 25 23 22 20 20 20 21 20 21 21 22
3 5 6 7 9 10 14 16 18 18 17 18 16 21 24 27 27 33 31 29 32 28 26 26 25 27 30 30 23 20 16 25 23 23 23 21 20 21 21 20 20 20 20
4 5 5 7 11 11 12 16 15 16 21 18 16 13 21 23 30 32 29 31 31 28 26 26 26 27 30 29 24 22 18 20 25 25 23 21 20 20 20 19 19 19 18
10 7 6 7 9 14 12 13 15 16 15 13 14 21 19 10 35 33 29 31 29 27 26 26 26 27 28 27 27 19 14 21 23 21 25 21 20 20 19 19 18 17 18
16 9 7 6 11 9 16 14 18 17 16 15 21 22 17 10 32 29 34 32 29 29 28 26 26 27 29 28 20 10 11 24 24 22 24 21 19 19 18 18 17 17 16
11 9 7 6 7 12 9 12 16 14 18 21 25 27 21 24 34 31 34 30 31 28 30 30 28 22 26 23 12 11 18 25 25 24 23 21 19 18 17 17 17 16 16
16 11 9 7 7 8 11 10 11 12 20 29 29 29 27 32 37 36 31 30 29 30 31 31 20 25 23 18 10 19 7 26 21 23 23 21 19 18 16 15 15 14 14
15 13 11 8 8 9 9 11 10 12 14 24 31 32 32 38 36 35 30 29 27 27 33 24 27 25 23 15 17 15 12 21 20 20 23 21 19 18 16 16 15 14 14
9 17 12 11 9 8 7 8 12 10 13 26 28 31 36 43 44 40 35 32 30 25 28 18 24 22 21 19 18 14 14 16 19 22 19 21 19 18 18 17 16 15 14
13 17 13 10 9 9 9 8 10 12 16 20 25 31 34 41 47 44 37 33 33 27 22 27 24 22 21 20 19 16 16 14 19 22 17 17 20 20 20 19 17 16 14
14 19 16 11 11 10 7 8 11 14 19 24 28 37 37 45 45 37 39 33 32 29 23 27 22 21 20 20 18 16 17 15 17 18 24 19 17 20 21 21 20 18 17
16 20 17 13 13 10 15 16 19 21 23 25 30 39 34 44 45 36 38 31 26 27 25 24 22 19 20 20 15 14 15 17 18 16 19 21 21 24 21 17 21 22 21
21 19 17 15 16 19 24 24 23 21 25 26 26 34 37 43 40 33 29 32 25 26 26 24 21 18 20 20 17 18 12 14 19 18 18 18 18 21 19 24 24 25 24
23 20 20 18 19 23 24 21 23 25 24 31 28 26 33 37 31 26 25 26 27 24 24 26 21 22 21 18 13 15 3 7 12 16 19 20 20 20 22 21 21 23 22
23 24 24 20 21 24 24 26 27 25 24 26 26 33 36 40 34 27 23 26 26 30 26 23 23 23 19 20 16 9 3 4 9 17 22 20 22 23 23 27 27 25 24
19 26 26 23 23 28 30 29 32 31 27 24 28 28 26 28 26 25 32 32 35 30 25 29 25 25 20 19 20 18 7 1 3 2 21 26 24 25 29 26 25 29 30
21 24 27 25 24 29 33 31 30 25 22 26 23 24 27 30 31 32 33 32 33 33 30 32 25 23 19 20 22 14 12 11 11 6 3 12 27 28 26 29 32 25 31
25 26 26 26 25 29 31 33 32 29 26 24 24 23 25 29 32 28 25 28 29 30 33 31 27 22 24 24 19 15 14 8 13 10 5 9 15 23 29 31 32 31 30

GFSSE_925_spd_093.txt.gz
Wind_Speed
9 12 10 9 12 15 15 16 14 14 14 15 15 14 15 18 22 24 25 26 26 25 24 24 23 25 26 28 29 29 31 32 32 31 30 29 28 28 28 30 30 28 28
14 11 9 10 11 14 14 14 15 14 14 15 15 15 16 19 21 22 23 23 22 21 23 23 23 24 26 29 30 31 35 34 31 31 29 28 28 28 28 30 30 28 27
10 9 9 11 13 14 13 12 13 15 15 15 17 18 19 20 21 22 21 21 21 25 24 22 23 25 27 29 30 30 31 32 30 29 29 27 25 24 25 25 26 25 25
10 8 11 10 12 14 15 16 15 16 15 15 16 16 18 21 22 21 22 24 26 26 25 24 24 25 28 30 31 30 30 27 26 26 23 22 22 21 23 23 24 23 24
12 9 8 9 10 13 15 17 17 19 19 18 18 15 5 8 22 24 26 29 29 26 24 23 24 26 29 31 31 30 28 25 24 25 22 21 22 21 22 23 23 24 24
11 11 9 11 11 14 15 16 18 19 21 24 24 16 5 15 15 26 30 31 29 27 24 24 24 28 28 29 30 30 30 24 27 28 24 21 23 22 23 24 25 25 24
12 10 9 9 11 14 17 18 18 19 24 28 26 7 15 27 22 22 28 32 31 28 25 24 30 28 32 34 34 31 29 29 28 28 27 21 22 21 22 23 24 24 24
13 10 7 8 10 13 15 17 20 22 25 28 25 10 23 25 29 22 26 31 31 29 26 29 32 32 33 32 30 26 24 24 29 26 25 21 21 22 22 23 23 24 24
12 7 6 6 8 10 14 15 19 25 23 22 15 13 11 12 14 36 31 30 31 27 26 34 32 32 31 28 24 19 17 30 28 28 27 22 21 21 22 23 23 23 23
10 9 5 5 8 9 12 15 18 22 22 16 13 21 14 11 12 24 28 25 30 29 28 33 33 32 29 24 19 20 33 29 27 28 27 22 22 22 22 22 22 23 22
10 11 10 7 9 8 11 15 18 18 16 16 16 17 13 17 26 32 30 31 31 28 29 32 34 33 28 22 21 33 32 29 25 27 25 23 22 21 22 22 22 21 21
16 14 13 12 9 12 12 15 17 18 18 21 19 19 19 23 28 32 36 30 28 27 29 31 32 34 29 24 24 20 31 28 26 27 26 23 21 20 20 20 21 21 20
22 19 18 15 12 14 14 15 17 17 20 19 20 22 24 19 25 33 28 31 30 28 30 30 30 33 30 25 21 19 30 28 27 30 27 23 21 19 19 19 19 18 18
24 24 18 11 17 15 16 17 17 20 20 20 22 27 22 17 16 35 38 35 32 31 32 32 32 34 29 25 17 12 27 26 27 30 27 22 21 20 19 18 17 17 17
32 25 19 11 13 16 14 20 20 21 22 21 26 28 21 22 28 31 35 35 33 31 33 33 31 33 29 20 17 24 26 26 28 30 28 23 22 20 18 18 17 17 16
31 24 18 13 12 12 18 17 16 18 20 25 28 32 23 29 32 37 39 35 34 35 37 33 30 35 25 18 18 15 23 25 26 28 27 23 21 20 19 17 17 16 14
26 24 20 16 12 12 14 16 15 16 17 30 34 31 31 34 30 42 41 38 36 37 36 27 30 31 21 17 17 19 26 24 24 27 26 24 22 20 19 17 16 15 15
28 25 21 17 14 13 13 12 14 15 19 23 34 34 35 36 40 45 44 38 38 42 33 31 32 28 22 21 18 19 25 24 22 23 24 24 22 21 19 19 18 17 16
28 27 23 18 16 15 15 13 13 16 18 22 29 33 38 39 39 43 40 38 43 39 29 38 32 31 26 23 17 16 19 23 22 21 21 23 22 23 22 20 19 20 19
29 28 24 20 17 15 14 12 12 14 17 20 25 30 36 39 43 40 40 45 43 37 37 37 33 31 29 26 22 18 17 20 23 21 22 20 21 21 22 22 23 22 21
32 30 25 22 18 18 16 18 17 17 20 23 27 28 34 39 43 42 42 46 42 37 41 36 31 30 32 27 23 17 20 20 20 19 23 23 24 23 22 22 24 24 24
34 31 26 22 20 23 21 20 18 20 18 23 24 25 34 35 48 46 45 44 43 40 38 36 30 27 28 29 19 17 3 7 21 22 21 25 26 26 26 27 26 26 26
32 33 28 22 24 24 23 21 23 21 24 23 26 27 24 30 45 49 46 40 39 37 36 34 30 30 27 25 24 10 3 4 6 16 23 27 26 26 28 27 26 27 27
29 32 27 25 25 27 29 27 29 24 19 18 29 26 24 28 40 41 38 31 33 32 33 34 26 25 28 24 27 16 10 7 3 2 22 28 27 27 28 30 32 31 31
35 34 30 28 27 29 32 30 27 21 18 20 24 32 33 29 28 30 33 31 29 29 32 30 23 23 23 26 23 16 13 8 8 2 2 10 28 29 30 33 33 32 36
31 33 32 29 28 32 32 30 30 27 27 25 25 24 26 26 30 31 34 34 34 35 37 31 27 26 27 28 28 22 16 10 13 6 2 6 14 23 33 34 34 37 36

GFSSE_925_spd_096.txt.gz
Wind_Speed
12 13 13 14 17 18 23 23 22 20 18 16 18 22 27 32 33 32 32 31 29 27 24 26 27 25 25 27 30 30 29 29 30 29 27 26 26 26 26 29 28 26 27
16 14 12 13 15 15 18 21 21 20 17 16 17 20 24 28 30 31 31 30 27 25 24 25 25 26 27 29 30 33 33 32 32 31 29 26 27 27 26 27 28 26 26
17 14 12 13 14 15 16 16 19 20 19 18 18 20 21 24 25 26 27 27 27 27 25 26 25 26 28 32 32 35 35 34 33 31 31 28 26 26 26 26 25 24 23
16 14 13 13 15 15 16 16 16 18 19 20 20 20 21 22 23 23 24 24 25 26 25 26 25 27 30 32 32 32 32 33 31 30 29 26 24 23 23 23 23 22 22
17 17 15 14 16 17 18 17 17 19 18 20 23 26 24 21 19 19 19 23 27 28 25 25 26 29 32 32 31 30 28 30 29 26 26 24 23 23 22 22 22 22 22
17 17 14 14 15 18 20 20 19 21 22 24 27 26 23 22 21 14 16 19 26 28 27 26 28 32 33 31 29 29 28 26 26 27 26 24 23 23 22 21 22 23 22
20 18 17 15 15 17 18 20 21 23 26 28 29 27 24 23 23 21 13 17 23 27 26 27 31 32 34 33 32 29 29 27 29 29 27 27 24 22 21 21 22 22 22
20 18 16 15 15 16 17 19 21 25 28 30 30 28 21 19 22 14 16 26 24 26 27 28 33 35 35 34 28 29 29 28 30 29 26 23 23 23 22 22 22 22 23
17 15 12 12 12 14 17 19 20 25 28 29 29 24 15 18 24 22 32 25 28 30 27 33 33 34 36 37 28 29 31 30 30 28 26 24 23 22 22 21 21 22 22
16 15 13 11 12 13 15 16 19 24 26 26 29 21 18 18 22 33 34 38 32 31 29 36 36 36 34 29 23 24 31 28 29 30 28 25 22 22 22 22 21 22 21
17 16 14 13 12 12 10 14 17 21 24 23 21 19 19 15 14 25 36 40 37 32 37 37 36 35 29 22 21 33 30 26 30 30 27 24 23 22 21 21 20 20 20
22 21 18 18 15 14 14 15 17 21 22 21 21 26 20 18 18 22 31 34 30 31 38 38 36 34 26 27 35 34 28 29 30 30 28 25 23 22 22 20 20 20 19
27 24 24 20 18 18 18 16 18 20 21 21 23 25 20 18 19 26 32 32 32 30 35 34 36 33 28 32 33 31 30 31 29 30 27 26 23 21 22 20 19 19 18
27 28 26 22 22 21 18 18 17 21 22 25 24 24 23 22 25 25 28 39 36 35 38 37 36 32 27 23 27 31 32 31 31 32 28 25 24 21 20 20 18 18 18
30 30 29 24 24 22 21 19 20 24 26 27 24 24 27 22 21 26 24 34 36 36 37 36 36 34 27 25 24 34 30 29 31 32 29 25 24 21 20 19 18 17 16
32 34 29 22 23 25 21 22 23 23 24 25 27 28 27 21 19 23 43 39 37 36 38 37 37 35 26 20 29 31 28 29 31 31 29 25 23 22 20 18 17 17 16
35 36 29 23 19 22 24 21 22 23 26 26 28 31 30 25 28 27 38 37 35 37 38 36 37 32 23 20 28 29 27 29 30 30 28 26 23 21 21 19 18 17 16
37 35 29 24 20 18 20 21 21 21 22 27 29 32 33 29 32 36 38 37 39 39 39 37 37 32 23 25 30 28 28 26 27 27 26 25 23 21 20 19 18 17 16
42 37 32 26 23 19 17 17 18 20 22 26 30 33 35 34 37 41 40 40 42 42 39 37 39 32 26 26 28 31 27 25 26 26 25 24 22 22 21 20 19 18 18
39 37 32 28 25 21 19 18 17 18 21 25 29 35 37 37 40 44 40 41 46 47 38 38 40 30 28 27 28 28 25 25 25 26 24 23 22 22 22 22 21 20 20
36 37 35 31 27 25 22 18 16 18 20 24 26 33 34 37 43 46 45 41 40 41 42 40 40 36 30 27 29 22 22 23 24 24 22 23 24 24 24 24 23 22 22
35 35 35 32 29 26 24 20 17 19 18 23 22 25 34 35 35 45 43 41 36 33 39 41 36 32 26 30 20 15 4 7 21 25 23 24 24 24 25 25 25 26 25
32 36 37 33 30 26 23 21 16 17 15 17 23 26 28 33 40 42 47 47 33 35 41 39 39 32 27 29 32 12 3 4 7 17 26 28 28 28 28 28 28 28 28
30 33 36 33 29 27 26 24 22 16 13 13 20 21 27 33 36 40 42 43 39 37 40 42 41 35 31 27 27 13 9 9 3 1 15 27 29 32 32 31 31 31 32
32 34 35 32 28 28 27 25 26 17 15 22 21 21 22 23 31 39 48 46 47 45 42 40 38 33 35 30 26 20 13 10 8 3 3 8 23 31 31 33 32 33 34
28 32 33 29 27 31 29 27 26 23 22 22 23 23 21 23 25 30 38 38 42 44 41 33 29 28 27 27 26 27 20 9 9 5 2 4 16 25 32 30 33 35 36

GFSSE_925_spd_099.txt.gz
Wind_Speed
15 14 15 15 18 21 20 18 19 22 23 25 29 32 33 34 34 32 31 30 28 27 24 25 26 24 22 23 25 27 26 26 25 26 26 25 24 24 24 25 27 26 25
18 17 18 18 18 21 21 19 18 20 23 25 28 32 33 34 33 31 30 29 26 23 23 24 26 24 24 26 26 26 27 27 27 27 26 25 25 25 24 26 26 26 25
19 19 19 19 19 20 21 20 19 17 19 24 28 32 33 32 32 30 29 25 24 23 22 24 24 25 25 29 29 30 30 29 29 28 27 27 26 26 25 26 25 24 24
20 20 21 20 19 19 20 19 19 19 19 21 25 29 30 30 31 29 27 25 24 23 22 23 24 24 26 30 31 32 32 31 30 28 28 27 26 24 24 23 22 21 21
21 20 21 21 20 20 20 20 20 19 20 22 24 26 27 29 25 28 26 24 24 24 22 22 25 26 30 32 33 33 33 31 30 29 29 27 25 22 23 21 19 19 19
21 20 19 20 21 21 20 20 20 21 22 24 25 26 27 27 27 24 24 23 23 23 22 22 23 28 32 32 32 32 31 30 29 28 27 24 24 22 22 20 20 20 19
22 20 19 18 19 21 21 20 20 21 24 26 27 27 27 27 26 27 26 21 22 25 24 22 25 29 31 32 31 31 30 28 28 27 26 25 23 22 21 20 21 20 20
24 22 20 19 17 19 21 22 22 24 25 28 29 26 26 25 26 28 27 23 28 24 26 24 26 30 31 31 30 29 28 27 27 27 26 26 22 22 20 20 20 21 21
22 22 21 20 18 18 19 20 23 26 27 28 28 27 26 26 26 21 23 30 30 25 26 27 29 31 31 30 29 27 26 26 28 27 25 24 22 22 22 20 22 20 21
23 21 20 19 19 18 19 22 22 26 28 30 29 30 28 22 20 24 22 27 31 25 28 26 32 33 31 28 30 28 27 27 28 27 26 25 21 21 21 21 21 21 21
23 22 20 20 19 20 19 21 22 24 27 28 28 30 28 23 23 23 26 31 33 35 26 31 34 35 29 28 30 28 27 27 29 27 26 24 21 21 21 21 21 21 21
27 26 23 21 19 18 17 19 19 21 25 27 32 30 27 21 18 22 28 32 40 39 39 40 36 37 30 30 30 29 28 29 28 29 27 23 23 22 21 21 21 20 19
31 27 26 24 21 21 20 19 19 21 23 25 25 23 23 21 18 15 28 37 37 35 33 37 40 35 29 30 37 33 29 28 28 27 26 24 22 21 21 20 20 19 19
29 30 27 25 25 24 22 23 22 22 23 23 23 25 27 20 19 20 28 32 32 31 38 40 40 32 29 32 36 32 30 30 30 29 27 24 23 21 21 20 19 18 18
28 31 30 27 27 26 25 24 23 23 26 27 26 26 27 22 20 21 24 29 33 37 42 42 37 29 30 35 33 32 30 32 29 29 26 25 22 21 20 19 19 18 17
30 33 33 29 28 26 26 26 25 22 24 26 27 28 28 25 27 23 30 27 39 39 39 42 38 33 32 34 32 31 31 28 29 30 28 25 24 22 21 18 17 17 16
36 36 37 33 29 27 26 25 24 22 22 23 27 26 27 28 27 26 26 26 38 43 43 41 39 32 28 30 34 32 27 27 28 30 28 27 24 21 20 19 17 16 15
34 38 38 35 30 30 26 26 25 23 23 23 25 26 28 29 25 26 34 37 36 42 42 42 40 33 27 30 33 29 28 27 29 30 27 25 23 22 21 20 18 16 14
42 38 39 36 31 28 29 26 24 23 24 26 25 25 29 29 26 24 26 33 42 37 39 42 39 35 31 31 34 30 28 29 30 29 26 25 23 22 21 20 19 17 15
38 38 39 35 29 26 26 25 22 21 21 22 26 28 30 31 29 29 33 38 36 35 36 36 40 34 34 33 28 28 27 27 29 28 26 24 22 20 19 19 18 17 17
32 36 38 36 32 29 26 23 21 21 22 22 24 27 30 31 36 36 38 35 33 32 39 38 37 35 31 29 26 19 17 21 24 25 25 25 23 21 20 21 19 18 18
34 34 36 37 32 29 24 20 18 21 22 20 24 25 29 33 39 38 40 38 38 29 31 42 34 27 27 33 21 15 3 3 15 21 26 23 23 22 22 22 22 21 20
30 34 36 33 29 26 28 24 17 17 15 18 20 21 22 31 36 39 43 42 41 33 30 37 37 31 25 26 32 13 3 3 5 15 24 24 25 25 23 24 24 24 23
29 30 32 28 26 26 28 26 24 15 9 13 19 22 23 20 33 40 44 42 38 31 33 34 35 30 32 25 28 20 11 11 4 2 14 27 26 27 27 26 26 26 26
27 31 32 26 24 28 28 26 25 19 16 15 18 19 22 23 22 37 44 39 42 38 32 35 35 32 32 29 28 20 13 10 7 3 2 6 25 31 31 30 29 29 30
19 26 28 27 27 26 28 27 25 22 19 18 17 16 18 20 25 27 36 44 39 36 36 39 41 35 35 30 33 23 22 8 6 4 2 4 12 18 31 31 32 32 31

GFSSE_925_spd_102.txt.gz
Wind_Speed
16 13 15 17 18 19 20 20 21 21 24 28 30 31 30 31 31 30 29 27 26 26 26 26 26 24 23 23 25 26 25 25 23 25 24 23 23 23 25 27 27 27 27
19 19 19 19 21 21 20 20 20 22 24 27 29 30 32 32 33 31 30 29 27 25 25 25 24 24 23 26 27 27 26 25 24 25 25 22 21 22 23 26 26 26 26
20 23 22 22 23 23 22 22 21 22 23 27 28 30 32 32 32 32 30 28 27 24 24 24 23 22 23 27 26 26 26 27 26 26 26 23 21 22 23 25 26 26 25
20 21 22 22 23 24 23 22 22 22 24 26 29 31 32 32 31 30 28 24 25 23 24 23 23 23 25 24 27 29 28 28 28 28 26 25 23 22 22 22 23 25 24
21 21 22 23 23 24 24 23 22 24 24 26 30 31 32 31 30 30 28 23 21 20 22 21 23 24 26 27 29 29 29 29 29 28 28 27 24 22 21 21 22 23 23
23 21 22 24 23 23 24 24 24 24 25 28 29 31 30 29 28 29 26 26 18 21 19 20 22 25 29 29 29 29 30 30 28 29 28 25 25 22 20 20 22 21 22
24 22 22 23 23 22 22 22 22 23 25 26 28 29 29 29 28 26 26 19 25 22 21 19 24 27 30 30 29 29 30 29 29 28 26 25 22 20 19 18 19 19 18
25 24 22 22 22 22 22 21 20 22 25 26 27 28 27 27 27 26 24 26 26 29 24 20 24 31 30 31 30 29 28 28 28 26 24 22 20 19 18 20 20 19 20
23 23 22 22 22 22 22 22 23 23 25 25 25 26 28 27 26 26 27 28 29 23 26 29 31 33 34 31 30 28 27 26 26 26 25 23 22 21 20 19 19 20 20
21 22 23 22 22 23 22 22 24 25 24 24 24 24 25 26 27 27 28 24 21 26 28 30 34 36 33 31 30 27 25 25 26 27 26 24 22 20 21 21 20 21 19
22 25 24 23 23 22 22 22 25 25 25 26 27 29 28 26 27 26 23 23 24 26 28 29 32 30 31 29 28 26 25 26 25 25 24 23 22 21 22 21 21 21 21
26 28 27 25 25 23 24 23 25 25 28 28 30 31 31 29 28 24 22 27 30 29 30 31 33 30 30 30 28 27 26 25 25 25 24 21 21 21 21 21 20 20 20
22 28 30 26 25 24 24 25 26 27 27 28 31 32 33 30 25 22 24 25 31 30 31 31 33 35 33 32 31 28 27 25 24 25 24 22 23 21 22 21 21 19 19
32 33 31 28 26 24 23 24 28 27 27 28 31 32 31 30 24 20 21 24 30 37 35 34 35 41 36 35 33 30 27 26 26 26 23 23 22 21 21 20 20 19 19
32 36 33 30 29 27 25 26 27 27 27 25 26 28 29 26 26 22 21 23 29 33 39 39 41 39 37 36 33 31 28 26 26 26 25 22 21 21 21 20 20 19 19
36 36 35 33 31 30 28 29 27 26 27 28 28 27 27 29 26 21 21 23 23 28 39 38 41 38 36 35 34 30 28 26 26 28 25 24 21 21 20 20 19 19 18
39 39 38 36 33 32 29 30 29 26 24 27 27 27 28 29 27 22 23 24 27 25 33 39 38 35 33 33 34 30 28 28 29 28 27 24 22 21 20 20 19 19 18
34 39 39 39 35 32 30 30 29 27 24 24 24 24 28 31 28 27 25 25 33 35 35 39 37 34 34 34 31 29 28 28 28 29 27 25 23 21 20 20 19 18 17
41 37 40 41 39 34 30 28 27 25 23 23 24 25 27 28 28 28 25 25 36 39 39 41 35 36 33 33 31 29 28 26 29 28 26 25 24 23 21 20 18 17 16
36 37 39 39 39 35 30 25 23 23 23 22 24 25 25 26 27 27 26 29 38 40 41 41 38 35 34 33 27 27 24 27 26 26 26 25 24 24 23 22 20 18 17
29 32 38 37 40 36 30 27 24 23 22 22 22 24 25 25 28 27 26 30 33 35 36 39 38 37 27 31 27 18 13 19 22 24 24 25 25 23 23 22 21 19 18
25 28 30 33 40 37 28 25 18 22 21 23 24 22 21 25 29 30 28 32 30 35 36 35 37 27 23 35 18 16 3 3 14 21 23 25 25 22 23 21 20 18 18
23 28 29 34 38 33 28 25 19 17 15 19 21 22 21 27 26 34 34 39 36 42 36 37 38 30 27 29 31 14 3 3 6 14 24 25 25 24 24 23 22 20 20
25 23 25 30 33 32 31 28 22 19 13 15 19 22 22 23 22 33 36 37 41 40 34 36 39 34 34 28 31 22 13 16 3 3 12 25 25 27 26 25 24 24 22
21 22 26 28 26 30 30 27 23 17 18 16 19 20 22 19 15 39 35 41 42 38 35 37 35 34 37 31 29 21 19 15 11 4 2 7 23 29 27 26 26 25 25
21 24 26 28 27 26 27 26 26 23 21 19 18 18 17 18 19 24 31 42 44 37 31 38 36 34 35 32 32 29 19 7 7 5 2 3 11 18 30 27 27 28 28

GFSSE_925_spd_105.txt.gz
Wind_Speed
11 14 15 18 17 20 20 18 17 20 25 27 27 29 29 30 30 29 29 27 26 24 25 26 25 23 22 21 24 26 23 24 23 23 24 23 23 23 24 25 23 23 26
19 18 17 19 19 22 22 20 19 22 24 26 26 29 30 29 30 30 28 26 25 25 22 27 26 23 22 23 25 25 23 23 24 24 24 23 22 22 24 25 23 23 25
20 20 19 20 20 23 23 22 21 22 24 25 26 29 29 30 30 29 28 27 27 26 22 22 23 23 22 26 27 27 24 24 25 24 23 20 20 21 22 23 25 24 24
22 22 21 21 21 22 22 22 22 22 23 25 27 29 29 29 30 29 27 27 26 26 25 22 20 21 25 28 27 26 25 25 25 24 19 19 19 20 22 23 22 23 23
22 23 23 22 24 23 22 22 23 23 23 26 28 29 31 30 30 28 27 24 25 23 22 21 20 21 25 25 24 26 27 26 26 20 20 19 19 20 21 22 23 23 23
23 24 24 24 25 24 24 23 22 22 24 26 28 30 30 30 30 25 27 24 23 20 22 24 22 25 26 25 25 27 27 27 24 20 19 20 18 20 20 22 22 22 22
23 23 24 25 24 22 24 24 24 22 22 25 27 29 29 30 30 29 27 21 21 19 20 24 25 27 27 27 27 27 28 29 21 22 19 18 19 18 19 22 21 22 21
23 22 21 23 24 23 22 23 23 24 24 24 25 27 28 27 28 27 27 30 17 22 24 26 28 30 29 29 28 28 29 27 22 20 19 17 20 19 17 19 20 19 19
22 21 20 23 22 22 22 22 22 22 25 26 27 26 26 25 25 28 28 23 23 23 22 25 28 31 31 30 31 32 28 27 21 18 17 16 19 18 16 18 21 20 19
21 21 22 23 23 22 22 22 22 23 24 25 27 27 26 25 24 25 24 24 26 24 20 24 29 31 32 32 31 31 28 26 19 18 15 15 18 19 18 17 18 21 21
22 23 24 24 24 24 24 22 22 23 21 22 23 24 25 24 25 24 24 24 26 22 21 26 32 31 33 33 32 29 27 19 19 16 14 21 20 17 19 20 19 20 21
23 26 25 25 24 23 23 23 25 25 25 25 27 25 28 27 26 26 26 27 25 19 21 24 28 29 32 31 28 27 19 19 17 16 15 21 20 18 17 21 19 20 21
21 22 28 27 25 25 24 24 24 26 28 28 27 30 31 29 28 29 30 25 22 22 23 23 26 29 32 32 26 19 18 20 17 16 18 21 22 20 18 20 20 20 21
22 23 27 30 28 26 25 28 27 27 28 30 31 30 32 31 30 30 27 26 24 26 26 27 29 33 32 33 29 24 20 18 17 17 20 22 20 20 20 20 20 20 20
24 24 30 32 31 29 28 29 29 29 31 28 29 30 31 33 35 30 30 23 19 22 28 32 32 35 34 27 29 26 20 17 18 17 18 22 21 21 19 20 19 20 20
26 27 26 30 32 30 31 29 28 27 29 28 28 30 33 33 33 32 27 20 19 23 29 37 39 40 34 23 28 23 20 17 18 18 18 21 20 20 20 19 18 19 19
29 27 31 34 34 33 29 30 28 27 28 28 27 27 29 28 30 28 27 21 19 20 34 41 42 39 32 23 24 21 18 18 18 20 19 19 19 20 19 18 18 17 17
25 27 32 34 38 37 34 33 31 30 28 27 28 28 26 26 27 23 23 22 23 25 31 42 40 38 34 25 25 19 18 17 19 20 19 21 22 18 18 18 18 18 16
25 28 28 31 37 38 32 34 31 30 28 27 24 27 26 27 24 21 23 25 28 29 28 30 37 37 29 24 26 20 18 19 19 19 20 19 21 18 18 20 19 18 18
23 24 26 29 32 34 32 30 27 28 27 27 25 26 24 25 26 26 25 28 31 32 33 37 39 37 32 29 22 18 16 15 17 19 19 20 20 19 19 19 19 18 19
20 19 23 26 28 33 33 29 27 27 27 26 25 24 25 25 27 27 29 29 27 38 41 37 37 42 25 26 24 15 10 11 15 15 17 20 19 19 20 19 19 17 19
16 18 21 25 28 33 31 29 20 24 23 25 25 25 26 27 27 27 30 30 30 32 42 45 39 30 24 30 16 19 4 4 11 14 18 20 19 19 19 19 19 17 17
16 16 18 23 25 30 27 26 17 21 15 22 23 22 25 27 25 26 28 29 29 33 35 43 40 32 22 26 25 15 5 5 13 15 19 19 20 19 18 20 20 20 20
17 16 17 20 25 28 29 28 25 23 18 18 21 20 23 24 24 29 30 31 35 34 35 36 38 31 32 25 25 13 14 16 6 5 15 19 19 21 21 21 20 22 22
12 15 18 21 25 28 30 27 25 19 15 13 15 15 22 23 23 30 29 32 37 37 41 44 42 37 38 31 27 17 14 17 13 5 7 12 19 21 21 23 21 23 26
10 13 17 22 26 29 29 28 29 22 18 16 15 17 17 23 23 25 30 32 42 41 39 37 37 36 36 34 31 27 21 12 8 5 3 12 15 14 21 20 24 26 26

GFSSE_925_spd_108.txt.gz
Wind_Speed
11 13 15 17 18 19 18 17 17 17 23 26 24 24 24 24 24 24 24 22 22 21 21 22 21 19 19 19 22 24 23 23 23 23 22 21 21 22 24 23 21 21 24
16 15 15 18 17 19 18 18 18 19 21 25 25 25 26 25 25 25 24 22 21 21 20 22 21 20 19 23 23 22 23 23 23 23 22 21 20 22 22 21 21 23 24
16 15 15 17 18 19 18 17 18 19 20 24 25 26 26 25 26 27 25 23 21 20 21 22 22 21 22 24 22 21 22 24 24 22 20 17 17 20 22 21 23 23 23
16 15 16 17 18 21 20 18 18 20 22 24 24 26 27 26 27 27 25 25 24 21 21 21 21 20 23 25 24 23 23 24 23 21 15 16 17 18 20 22 22 23 23
16 16 15 16 19 22 22 21 19 20 22 23 24 26 27 27 28 26 24 23 23 20 20 18 17 19 26 26 25 23 23 23 21 14 14 16 16 16 18 20 19 21 21
16 15 16 17 20 22 22 22 21 21 21 23 24 26 27 27 28 27 26 25 22 20 20 19 17 20 26 27 24 24 24 23 17 13 14 16 15 18 18 19 20 22 22
16 15 15 18 20 22 22 22 21 21 22 23 24 26 28 28 27 27 27 25 25 22 22 14 22 24 27 27 25 25 24 22 13 13 16 16 18 19 19 19 20 21 22
16 15 15 21 21 22 22 21 21 21 21 23 25 26 28 27 27 26 27 25 23 20 17 20 23 26 29 28 27 26 26 20 16 16 15 14 18 17 18 19 20 21 19
15 15 16 18 18 20 20 22 22 21 21 22 24 26 28 27 26 25 27 25 25 18 19 20 24 26 29 29 28 28 29 25 16 15 14 16 18 17 17 18 18 19 19
16 15 16 16 17 17 17 20 21 21 21 21 22 24 24 23 24 26 28 27 25 16 21 20 23 23 27 29 28 29 30 22 16 15 13 16 19 17 17 18 18 17 17
17 17 17 16 17 17 16 17 21 20 20 22 22 24 23 20 20 23 24 24 21 20 19 17 20 24 26 28 29 30 27 18 16 14 12 18 18 17 17 16 18 18 17
20 20 19 19 19 18 17 16 19 19 19 18 19 20 21 20 20 22 22 24 22 23 22 17 22 25 25 28 26 27 20 16 14 11 12 19 20 18 17 16 17 19 18
20 19 20 20 20 20 19 18 19 21 19 20 20 19 19 19 17 21 19 21 21 24 14 17 22 25 26 25 29 26 15 16 14 13 18 20 20 19 19 17 16 19 19
22 23 21 21 22 22 20 20 17 23 23 20 21 26 18 17 17 18 18 19 21 21 19 20 25 26 25 28 27 24 14 15 13 12 18 21 20 20 19 19 17 18 19
21 23 23 22 24 23 23 20 20 18 21 24 23 22 25 22 21 19 21 23 22 18 19 22 22 26 24 29 29 17 17 15 15 13 16 21 21 21 20 19 17 17 18
22 23 22 24 26 25 25 23 22 20 19 19 22 24 26 23 24 22 22 25 24 20 19 24 26 31 29 31 28 20 20 17 17 14 16 18 20 21 21 19 18 18 18
21 20 24 25 26 29 28 24 24 22 20 20 22 28 20 24 23 22 22 25 24 23 21 24 27 31 31 29 25 23 20 17 17 16 16 20 18 19 19 20 19 18 18
17 19 22 23 26 30 29 26 24 22 21 22 26 26 22 21 20 21 21 21 23 22 25 30 33 36 35 33 26 22 19 18 16 18 18 20 20 19 18 19 19 20 19
16 18 20 22 26 29 30 27 24 23 26 21 19 21 24 19 19 18 19 20 24 26 26 30 36 38 36 32 23 23 19 18 18 18 18 18 18 18 18 19 20 19 18
15 17 19 21 25 27 28 27 23 25 26 21 21 19 18 20 20 20 19 21 24 25 28 28 27 30 36 31 23 20 19 17 18 16 18 18 19 18 18 19 19 19 19
16 17 19 20 23 26 29 29 26 29 26 22 22 20 20 20 20 21 24 21 25 30 30 31 26 29 29 29 21 17 16 15 16 17 18 19 19 19 19 20 21 18 19
15 16 15 18 21 26 27 27 23 25 22 21 23 19 20 20 21 23 26 25 28 28 35 34 31 30 24 30 19 15 5 6 13 16 19 19 20 19 21 20 18 17 17
11 14 16 18 21 25 27 26 21 20 15 18 22 22 24 21 22 24 27 29 30 33 34 35 36 31 31 32 30 11 5 5 17 16 17 19 19 19 20 20 20 20 18
13 13 15 16 20 24 28 29 31 27 22 20 21 19 22 22 24 26 27 24 29 30 32 38 41 35 34 33 25 18 16 20 11 6 18 21 21 20 20 20 21 21 21
12 11 11 14 19 22 27 28 30 26 22 19 20 20 21 23 26 24 27 26 28 30 34 35 33 34 32 27 28 12 12 17 16 12 9 18 21 22 23 24 21 21 21
13 11 10 14 18 22 25 29 31 28 23 20 20 19 19 23 23 25 27 27 28 31 35 38 36 37 36 27 24 16 16 18 16 9 6 15 20 24 24 22 23 21 20

GFSSE_925_spd_111.txt.gz
Wind_Speed
7 11 14 15 16 16 15 15 14 16 18 20 18 16 17 17 17 17 16 16 18 18 17 16 16 14 14 14 14 15 17 17 19 20 20 20 21 21 20 19 18 20 23
14 13 15 15 15 15 14 13 14 15 19 21 18 18 19 18 19 18 17 17 18 17 17 17 16 14 14 17 18 19 19 20 21 21 21 21 21 19 18 18 21 22 23
16 14 15 15 15 15 14 13 13 14 17 19 20 20 22 20 19 19 18 16 17 17 16 17 15 15 16 18 19 20 20 20 20 19 19 17 15 18 20 20 22 24 24
16 15 14 14 16 15 15 13 13 13 15 19 21 22 22 21 21 21 21 18 17 15 16 18 16 17 19 18 18 19 20 20 19 19 14 16 15 16 18 20 21 22 24
15 14 14 13 15 16 15 14 13 14 16 18 20 21 24 23 23 24 23 21 20 18 18 18 18 17 21 19 19 18 19 19 18 16 14 16 15 16 18 19 19 18 19
15 13 13 13 17 17 16 14 13 14 16 18 20 22 24 24 24 25 24 23 22 20 19 18 17 17 21 21 20 19 18 17 17 13 15 13 16 15 16 17 18 19 20
16 14 13 15 17 18 18 16 15 15 16 18 19 22 25 24 24 24 24 24 22 20 19 16 12 13 23 22 20 20 18 15 14 16 15 12 14 17 18 18 19 20 21
16 15 12 17 18 19 18 17 16 15 15 16 19 19 23 24 24 26 25 24 22 19 19 19 14 21 25 24 22 20 18 14 10 15 17 13 18 18 18 19 19 20 19
16 15 13 15 18 19 18 17 17 15 15 15 18 19 21 22 23 25 25 22 21 20 19 15 14 19 22 19 21 21 19 15 7 15 17 16 18 18 18 19 19 19 17
15 15 16 16 16 16 17 19 18 17 16 16 17 19 19 20 21 23 24 23 22 21 17 15 13 14 20 21 23 21 21 15 12 12 13 17 18 16 17 18 18 17 16
17 17 17 18 17 17 15 14 18 18 18 18 18 19 19 18 18 20 21 21 23 21 15 16 13 17 19 23 24 21 21 14 22 16 13 20 20 18 17 16 17 16 16
21 20 19 18 18 18 16 15 15 16 16 16 17 17 18 18 18 20 21 24 23 23 15 16 16 17 19 21 23 23 19 11 9 14 17 20 19 18 17 16 16 16 16
23 21 21 19 18 18 17 16 15 20 17 18 20 20 18 20 19 19 19 21 23 22 17 17 18 16 16 20 24 25 24 22 21 15 19 19 19 18 17 17 17 17 17
23 23 22 21 20 20 18 19 17 17 19 19 20 21 21 19 17 16 18 17 20 19 21 20 17 17 18 19 24 25 26 22 21 18 20 18 19 20 19 17 17 18 18
22 24 23 23 22 22 22 20 19 17 22 18 18 20 20 17 16 16 18 18 20 25 25 17 18 20 20 21 23 24 24 19 14 16 22 18 21 21 20 18 19 19 18
20 21 22 24 25 23 23 22 20 19 16 24 23 20 23 21 19 19 19 20 19 18 17 18 22 21 24 24 24 26 23 20 20 15 18 19 22 22 21 21 20 20 19
22 21 20 24 23 25 25 24 22 21 19 18 19 23 22 24 20 19 18 21 21 22 19 17 20 23 22 25 29 29 24 21 16 20 20 20 21 22 22 22 22 20 19
20 21 21 23 24 24 27 26 23 24 22 20 19 21 22 23 23 19 19 19 20 19 20 16 19 26 26 30 29 30 25 19 18 15 20 21 21 20 22 22 21 21 20
21 20 19 21 24 24 26 26 25 23 24 22 20 20 21 24 25 21 21 19 18 18 18 17 22 29 28 29 31 30 26 22 22 21 18 21 21 20 20 21 20 20 20
16 16 16 17 21 23 23 25 25 24 25 24 22 21 20 22 20 23 21 18 17 18 18 22 25 29 31 28 29 30 25 22 21 19 24 23 22 21 20 20 19 19 20
13 14 16 17 19 22 24 26 27 26 25 25 24 21 20 21 21 24 21 19 22 21 23 23 25 28 25 34 27 23 22 20 19 19 21 20 20 21 19 20 20 18 19
14 14 17 17 19 23 24 26 24 23 24 23 23 22 22 22 21 22 21 22 26 24 21 23 27 19 15 27 19 15 5 9 15 19 14 22 23 21 20 20 20 20 19
13 10 13 17 19 21 23 18 19 20 21 23 26 24 24 23 22 22 20 21 25 25 25 28 30 29 21 27 20 8 5 3 13 17 21 21 25 22 21 21 21 21 17
8 7 11 14 17 20 23 23 26 23 22 24 22 24 23 24 23 21 22 25 27 27 27 31 33 33 29 31 24 14 10 15 7 5 17 20 22 22 22 22 19 18 20
6 8 10 13 15 19 22 26 26 26 25 22 23 23 24 22 25 23 21 24 27 30 32 35 33 31 30 32 32 25 18 18 23 10 9 16 22 24 21 18 23 23 22
6 9 12 13 16 18 21 25 25 27 27 25 23 23 21 20 22 26 24 26 25 28 32 35 36 33 33 28 29 29 20 19 20 14 8 13 15 21 25 24 19 18 20

GFSSE_925_spd_114.txt.gz
Wind_Speed
18 18 16 16 16 15 14 13 12 12 12 11 9 10 11 12 12 13 13 14 14 15 13 14 14 13 10 9 9 11 12 15 17 18 19 22 21 21 21 21 20 24 24
20 19 17 16 15 15 14 13 12 13 14 12 11 11 12 13 13 14 14 14 15 12 11 11 12 11 10 10 12 13 15 17 18 19 21 22 20 19 18 21 21 24 25
20 20 17 16 14 14 13 13 12 13 14 14 13 14 15 15 15 16 15 15 15 12 12 11 10 11 11 12 14 16 16 16 17 17 20 18 18 19 20 19 23 24 25
20 20 17 16 14 14 14 12 12 11 12 14 15 15 16 16 16 17 16 16 15 14 13 12 11 10 12 14 13 13 15 17 19 18 20 16 15 18 18 23 24 25 26
18 17 16 16 16 15 14 12 10 10 11 14 16 16 18 18 18 18 17 17 16 14 14 15 12 10 12 13 13 14 14 18 19 17 17 16 15 16 19 22 22 23 23
19 16 16 16 16 15 14 13 11 10 11 13 14 16 17 18 18 18 18 17 16 15 14 16 14 12 15 15 14 13 14 18 17 12 20 18 15 18 17 18 19 20 21
20 17 15 15 14 15 15 13 12 10 11 12 14 15 17 18 18 19 19 18 17 14 14 14 13 13 16 16 14 12 12 15 10 9 19 21 15 18 17 18 20 21 22
18 15 17 16 15 16 15 14 13 12 12 12 14 14 16 18 16 20 20 20 18 16 15 14 13 12 15 17 15 11 10 12 7 15 20 19 18 18 19 20 20 21 20
17 13 16 18 18 17 16 15 14 14 13 13 13 15 16 15 16 18 20 19 17 16 13 13 10 9 15 16 14 10 9 11 6 11 13 17 19 19 19 20 21 19 18
17 15 13 17 19 19 18 17 16 15 14 13 13 15 14 14 16 18 18 18 18 16 15 14 7 12 15 12 15 12 10 11 9 12 14 19 21 20 20 20 21 19 17
18 17 16 16 16 17 17 18 18 17 15 15 14 15 15 16 16 18 18 19 18 17 16 12 9 14 16 21 16 15 13 14 9 14 18 18 20 19 18 19 19 18 17
20 20 20 19 18 17 16 15 20 19 19 18 16 15 17 17 16 16 17 21 19 20 17 13 13 13 17 17 18 17 20 18 10 12 14 19 19 19 19 18 18 18 17
24 22 22 22 22 22 18 18 17 17 17 17 17 18 15 16 19 18 18 21 22 21 17 16 15 15 17 19 21 23 23 23 5 14 16 20 18 18 17 19 18 19 18
28 26 24 25 24 24 20 22 21 23 19 18 20 21 19 20 19 18 17 20 23 22 23 17 19 17 15 21 21 26 25 25 14 10 14 22 20 19 18 17 19 19 19
30 33 33 30 29 26 25 22 21 25 22 20 20 23 24 20 20 19 18 18 20 21 22 23 21 19 19 20 20 25 30 27 12 14 17 20 19 21 19 18 19 19 21
20 32 36 35 33 28 26 23 24 21 23 22 22 22 23 23 23 21 20 19 19 21 22 23 24 21 21 20 19 22 28 25 14 14 22 23 22 23 21 20 20 20 21
19 14 35 35 33 29 26 28 20 22 20 24 23 26 23 26 21 21 21 19 21 18 20 22 21 19 20 21 20 23 26 22 18 20 25 26 25 23 22 21 21 21 21
24 22 23 28 34 32 26 24 26 20 22 19 24 29 26 25 24 23 20 21 22 19 19 19 20 23 22 25 25 27 27 24 23 22 27 28 26 24 22 23 22 22 22
22 22 21 31 30 30 27 24 25 26 22 23 21 21 27 28 28 24 22 20 18 21 20 21 19 24 26 25 26 26 28 27 20 25 28 25 25 24 25 24 24 23 22
24 21 20 22 31 29 25 28 22 25 27 23 23 22 23 26 28 31 25 17 21 19 21 20 22 22 23 27 24 26 30 29 24 26 27 26 27 24 24 25 23 22 22
8 4 2 7 19 27 24 23 25 24 25 26 24 23 23 26 28 28 27 22 20 21 23 23 20 21 23 25 18 18 21 28 27 25 28 28 27 24 25 25 25 24 23
3 1 5 8 10 15 22 25 24 26 24 24 24 22 26 29 27 26 26 28 24 25 23 23 26 20 20 28 14 17 5 9 21 17 28 32 29 26 24 24 26 23 25
6 3 8 11 15 18 23 24 23 16 17 22 29 29 26 28 29 27 27 27 27 27 27 26 27 26 18 24 24 8 4 3 11 18 25 30 30 31 26 26 23 23 24
7 5 1 8 12 14 19 23 26 21 17 21 23 27 24 25 26 27 25 29 27 28 28 27 27 27 24 20 22 15 8 10 6 4 16 23 32 30 26 25 25 26 27
9 9 3 5 12 14 15 25 26 22 21 20 22 24 34 29 30 28 27 28 26 28 28 28 26 28 30 25 23 18 14 14 13 9 7 6 25 26 30 28 26 22 22
5 6 1 8 15 12 15 16 24 25 23 20 23 27 28 26 31 29 29 29 27 29 29 27 27 31 31 28 25 24 22 18 17 13 6 7 16 24 24 25 27 26 23

GFSSE_925_spd_117.txt.gz
Wind_Speed
23 25 22 20 20 19 17 17 16 14 13 13 13 13 14 14 15 16 17 17 17 16 16 15 13 11 10 10 11 11 13 14 14 18 22 23 23 22 23 22 24 24 24
28 25 21 21 19 18 17 16 15 14 13 13 13 13 14 14 15 16 16 17 16 14 14 13 11 10 9 10 9 9 11 13 17 21 22 21 22 21 20 23 24 25 26
28 25 23 21 18 17 17 16 16 15 13 12 13 13 14 14 15 15 16 17 15 14 13 10 11 10 10 11 11 13 15 17 17 19 21 22 20 20 19 23 25 26 26
28 25 23 20 18 17 16 16 15 14 13 13 13 14 14 15 14 15 16 17 17 13 14 12 11 12 13 13 12 14 16 17 20 18 18 19 21 17 21 23 25 26 27
27 24 22 20 19 18 18 16 15 15 14 14 14 14 15 15 14 14 15 16 16 13 14 12 11 13 15 14 13 13 15 18 17 15 16 17 19 19 21 22 24 26 26
24 23 22 21 20 19 18 17 16 15 15 15 14 14 15 15 15 14 14 15 15 12 14 11 11 11 13 13 13 13 15 17 14 13 13 16 15 18 20 22 23 24 24
24 24 24 22 21 20 18 17 15 15 15 15 15 14 15 15 14 15 15 14 13 11 12 10 10 9 10 11 11 12 14 15 10 6 14 17 19 19 18 19 20 21 20
26 23 24 23 21 20 19 17 15 15 15 15 15 14 15 15 15 15 16 15 13 13 12 12 11 7 9 11 11 11 11 10 5 8 9 15 18 21 20 19 21 20 18
24 23 24 24 22 20 19 18 16 15 15 15 16 15 14 15 15 15 17 16 14 12 13 13 10 8 9 12 13 12 11 9 4 9 11 9 17 20 21 20 21 19 18
23 20 23 24 23 22 20 19 17 16 15 15 17 18 16 16 16 15 17 16 16 13 13 14 12 7 10 13 12 10 9 7 9 9 8 16 18 18 20 21 21 19 18
20 18 22 24 24 22 21 19 18 17 16 15 16 18 18 18 18 17 17 17 17 16 16 15 13 10 12 14 14 12 10 6 8 14 15 16 18 18 18 18 19 19 19
25 20 19 23 25 23 22 21 20 20 20 19 18 18 19 19 19 19 19 19 19 18 17 17 14 15 16 18 18 14 13 6 12 17 16 18 18 19 17 17 17 18 18
30 25 23 23 24 24 23 23 23 22 21 20 20 20 19 19 19 18 19 22 21 20 20 20 17 17 17 20 20 17 15 15 8 16 18 18 18 21 19 18 17 17 18
33 33 28 25 25 24 24 22 21 24 24 23 23 21 20 20 22 21 20 22 24 24 23 22 20 17 19 21 19 19 19 19 16 11 12 17 18 21 21 19 19 18 18
34 38 36 34 33 29 28 25 21 23 25 24 23 23 22 21 23 23 23 23 25 25 25 23 22 21 21 22 20 20 23 22 20 15 13 17 22 22 22 20 20 20 19
34 39 43 42 40 37 33 29 26 28 25 23 23 24 25 25 24 24 25 23 24 25 27 25 25 24 23 21 20 20 23 27 25 17 13 15 22 24 22 21 21 20 20
23 35 40 44 43 40 36 33 30 25 30 27 27 24 26 27 27 27 26 25 24 22 22 24 26 23 23 20 22 21 23 26 25 17 15 15 22 24 22 21 22 21 21
26 23 45 41 43 40 38 38 30 26 27 30 26 27 25 27 27 27 26 25 25 23 23 25 26 26 25 26 23 22 22 22 23 20 17 24 26 26 23 22 23 23 23
31 31 37 41 44 43 38 35 36 26 24 27 31 30 30 29 29 25 27 27 26 26 24 25 25 27 27 27 24 21 22 24 24 20 24 27 28 29 26 22 23 24 24
36 30 31 44 48 45 40 35 31 33 26 21 26 30 30 34 29 27 27 24 25 26 26 26 26 25 26 25 24 22 23 25 25 24 27 29 31 29 27 25 25 25 26
21 22 22 33 36 38 37 33 26 31 33 33 25 24 26 31 32 30 29 26 27 29 28 27 26 26 21 24 18 17 22 25 27 26 29 32 33 32 30 28 29 27 25
20 18 20 26 32 33 33 33 27 31 31 35 35 30 28 29 31 29 32 32 25 29 27 27 28 22 19 24 10 10 3 6 19 28 27 35 35 34 32 30 30 27 25
21 17 14 15 19 30 30 29 20 27 18 28 33 31 29 28 28 29 33 33 31 32 29 28 28 27 17 25 24 7 3 3 7 18 25 31 35 33 31 29 30 29 28
18 16 14 10 7 6 3 28 32 27 20 29 31 34 27 21 29 31 31 33 36 32 30 30 29 28 22 20 23 25 10 6 4 3 17 26 33 32 34 31 31 31 29
16 18 16 11 11 11 12 12 23 31 32 28 29 30 30 29 26 35 34 34 33 35 31 30 29 29 31 22 22 15 14 10 17 6 5 9 22 29 33 32 30 27 28
30 30 29 25 21 17 19 17 11 25 29 23 23 25 27 30 29 34 32 34 33 34 33 31 30 31 32 28 27 23 22 16 17 15 7 15 18 21 27 31 31 28 27

GFSSE_925_spd_120.txt.gz
Wind_Speed
27 30 28 25 23 23 21 21 21 20 19 18 18 18 18 19 21 21 21 21 21 20 19 17 15 13 11 11 12 13 14 14 15 18 21 22 22 21 21 22 23 23 23
36 31 28 25 24 23 22 20 20 20 19 18 18 18 19 19 20 20 19 19 17 17 17 16 14 12 12 10 11 12 13 15 19 21 21 20 20 19 20 21 23 24 24
34 31 27 25 24 23 23 21 19 19 19 18 18 19 19 19 19 19 19 18 16 14 14 14 12 11 12 12 12 13 16 18 19 21 21 20 18 18 21 21 23 23 23
34 31 29 25 24 23 22 21 19 19 18 18 18 18 19 19 19 19 19 18 16 13 11 11 12 12 13 15 16 16 18 18 17 17 18 18 18 19 20 22 23 23 22
33 30 28 26 25 23 22 20 20 19 19 19 19 19 19 18 18 19 19 18 16 15 10 10 11 13 14 15 16 18 19 18 17 16 17 16 17 19 20 21 22 23 23
31 29 28 27 25 24 23 22 20 20 20 19 19 19 19 18 18 19 19 18 16 14 11 10 11 13 13 13 15 17 20 14 14 13 15 15 16 18 19 20 22 22 20
32 30 29 27 26 25 25 23 22 21 21 21 20 20 20 19 18 18 18 17 15 13 13 11 11 11 12 12 14 16 18 14 12 10 13 14 14 20 20 20 21 21 20
34 31 29 27 26 26 25 23 22 21 22 21 21 21 21 20 19 18 18 17 15 13 14 11 10 10 12 11 13 14 16 13 7 9 12 12 13 18 20 20 20 19 17
34 33 30 28 26 25 25 24 22 21 21 22 20 20 20 20 19 18 18 17 16 15 15 14 11 8 9 11 12 12 13 11 8 12 15 12 12 16 18 19 17 17 15
33 32 31 29 27 26 25 23 22 21 21 21 21 20 20 20 20 18 19 18 17 16 16 15 13 9 10 11 12 12 11 10 9 16 12 14 17 16 17 19 18 16 15
29 30 30 30 28 27 26 25 23 22 21 21 21 20 19 20 20 20 20 19 19 18 17 16 15 10 10 13 13 12 11 11 13 12 16 16 19 21 19 18 18 17 16
28 30 31 31 30 28 27 26 25 23 22 22 22 22 22 21 21 20 20 21 21 20 19 17 16 12 13 15 15 12 11 11 12 15 12 17 20 22 21 18 17 17 17
35 29 30 31 31 30 30 28 27 27 25 24 23 22 22 22 21 21 21 22 22 22 21 19 18 15 16 16 16 16 12 12 17 17 15 20 21 21 23 20 19 19 18
37 35 31 31 31 31 30 30 29 29 27 26 25 23 23 24 23 23 23 23 25 25 24 23 21 18 18 17 18 18 15 15 18 20 22 22 22 20 21 21 21 19 18
36 38 38 35 35 34 33 31 31 30 29 27 26 26 25 26 26 26 25 25 27 26 26 24 23 22 20 19 19 18 18 18 18 21 23 24 21 22 21 20 21 22 20
36 39 39 40 40 39 39 36 34 31 30 29 29 28 27 26 27 28 27 27 27 28 26 25 25 24 22 21 21 20 19 21 21 22 20 22 23 22 23 24 24 23 22
34 42 40 42 41 41 41 38 36 33 29 30 29 28 28 28 27 28 28 28 29 28 27 26 25 24 23 21 21 20 19 23 24 24 22 20 23 24 24 26 24 24 23
36 34 39 37 42 42 41 38 36 34 32 31 29 28 28 29 29 29 29 29 27 27 27 28 27 26 26 24 24 21 19 21 25 27 22 20 16 22 21 20 23 24 22
34 39 40 41 42 45 44 41 39 37 35 34 32 31 30 30 31 30 30 29 27 26 27 27 27 30 29 27 25 22 21 22 23 25 23 20 19 26 27 26 24 25 23
30 30 42 45 47 46 43 38 37 34 34 32 34 31 30 31 31 32 30 28 28 28 28 28 30 30 30 27 23 21 22 21 21 26 25 22 25 27 29 27 26 26 23
32 28 33 42 45 37 30 30 30 32 29 31 33 33 32 31 31 31 30 28 30 31 31 29 28 30 26 24 18 15 20 20 22 27 26 24 29 31 30 28 29 28 26
31 27 28 37 34 37 34 30 25 32 35 31 30 32 34 34 34 33 32 31 34 32 31 31 31 20 17 27 9 5 2 7 22 28 29 28 30 32 32 31 30 31 28
18 19 28 35 35 33 31 30 24 25 19 28 29 29 30 33 35 37 35 32 32 30 32 33 33 28 18 23 23 8 2 3 3 15 27 29 33 34 35 34 33 31 30
19 21 22 22 24 22 22 24 24 23 20 29 34 38 35 31 32 34 36 33 32 34 33 33 31 31 23 18 20 27 9 6 3 2 12 23 30 32 36 37 34 33 32
33 34 35 35 34 27 20 6 16 22 22 23 31 32 35 34 32 34 35 35 33 34 35 34 32 31 31 23 22 14 21 13 9 3 3 8 19 27 33 36 36 34 33
25 32 29 28 26 23 21 18 16 11 11 18 23 26 32 33 34 34 34 34 36 36 37 37 34 31 32 31 29 24 21 13 10 7 2 9 18 21 29 33 33 34 33

GFSSE_925_spd_123.txt.gz
Wind_Speed
18 31 29 27 27 26 25 24 23 22 22 23 24 26 27 27 25 24 23 22 21 19 18 17 15 14 15 14 14 13 14 14 14 17 17 18 19 20 20 20 21 21 21
31 34 31 29 27 26 26 25 24 22 22 22 23 24 25 25 25 24 23 21 19 18 16 15 14 13 14 14 15 15 14 16 15 16 17 19 18 18 21 20 21 21 21
36 35 31 29 27 26 26 25 24 23 23 22 22 23 24 24 24 23 22 20 18 17 15 14 13 13 13 14 13 13 15 18 18 17 17 18 17 18 19 19 20 21 21
41 36 32 29 27 26 26 26 25 23 23 23 22 22 23 23 23 22 21 19 17 15 14 13 12 13 14 15 15 17 17 17 16 16 17 16 18 19 19 20 19 20 21
39 36 33 29 27 26 25 25 25 24 23 23 23 22 22 22 22 21 21 19 17 15 13 13 13 15 15 16 16 17 17 16 15 15 14 13 19 17 18 19 19 20 20
37 35 32 29 28 26 25 25 25 24 23 23 23 23 22 22 22 21 20 19 16 13 12 13 14 16 16 16 17 17 16 16 14 13 14 12 16 17 18 19 20 19 18
37 34 31 29 28 27 26 26 26 25 24 23 23 23 23 22 22 21 19 19 17 14 13 13 14 15 15 16 17 17 14 13 11 12 13 13 12 17 17 18 19 18 17
39 35 32 29 29 28 27 27 26 26 25 24 24 23 23 22 21 21 19 18 17 16 14 14 14 14 14 16 16 16 14 12 9 10 13 12 13 16 16 18 18 18 17
36 35 33 32 30 28 28 27 26 26 26 25 24 23 23 21 20 19 19 19 17 16 15 15 14 13 14 15 15 15 14 12 7 14 13 13 15 18 17 16 16 16 13
36 36 35 33 31 30 28 26 25 25 26 25 24 23 23 22 20 19 18 18 17 16 15 15 14 11 13 14 16 14 13 11 10 14 15 14 16 17 20 20 17 15 13
33 37 36 34 33 32 30 27 25 25 25 25 24 23 23 23 21 19 19 18 17 17 15 15 14 11 11 13 15 14 14 12 13 16 16 15 17 18 18 19 19 16 14
31 37 39 39 34 32 31 29 27 26 26 26 26 25 25 24 23 22 20 19 17 17 17 16 15 12 11 15 16 15 14 12 15 16 16 15 17 18 20 21 19 17 16
44 37 39 38 39 35 32 31 29 27 27 27 27 27 26 25 24 23 22 22 20 19 18 17 17 15 13 16 16 15 14 14 15 16 17 16 20 19 20 20 17 18 17
34 42 41 39 38 38 36 33 32 31 29 30 30 28 27 27 26 25 24 24 24 23 22 21 20 17 15 16 16 15 15 13 15 17 16 18 20 20 21 20 20 19 19
29 34 42 41 40 39 38 37 35 34 33 32 31 31 29 30 29 27 26 26 26 26 26 24 22 19 17 17 17 17 17 15 16 19 19 21 20 20 21 22 21 21 19
32 38 41 42 42 41 40 39 39 37 35 33 32 33 32 31 30 29 27 27 27 28 28 26 24 22 21 19 18 18 19 17 18 19 20 22 22 22 21 22 22 21 21
34 40 42 43 42 41 42 40 40 38 37 35 34 32 32 31 29 29 29 28 28 29 28 26 25 23 22 20 19 19 19 18 20 22 23 24 25 23 23 22 24 23 24
31 33 41 39 43 42 42 40 41 40 38 37 35 33 32 31 30 29 30 30 28 28 29 28 26 25 24 22 21 21 20 19 20 24 26 26 25 24 24 22 25 22 24
37 34 35 37 41 43 41 40 38 36 35 35 33 33 32 32 30 29 29 29 27 28 29 29 28 26 25 23 22 21 20 18 19 23 26 25 25 24 24 21 13 20 23
42 37 39 40 41 42 39 33 35 34 33 32 31 32 30 31 30 30 29 28 28 28 29 29 28 28 26 25 21 22 22 21 19 21 25 26 25 25 23 26 23 23 25
39 44 38 38 41 36 32 32 30 32 36 35 34 31 30 31 30 31 31 29 29 30 31 29 27 26 25 22 16 13 18 22 22 23 22 27 26 26 24 29 27 27 26
32 40 44 43 40 41 35 37 27 30 33 36 33 31 33 33 33 32 33 32 30 30 30 30 29 21 19 24 11 5 2 6 21 26 22 26 30 27 28 30 30 29 28
28 27 37 42 39 38 31 28 22 24 17 24 28 30 32 32 34 34 33 32 33 31 34 32 32 27 18 23 23 8 2 4 4 13 24 25 27 27 31 33 31 30 30
12 14 16 16 17 18 22 23 25 20 14 26 30 31 31 30 33 35 34 33 33 33 34 32 32 33 25 18 21 28 11 4 3 2 9 22 27 29 31 34 34 32 33
25 31 33 31 25 18 20 17 10 7 4 1 21 27 31 31 33 36 36 36 35 33 33 33 32 33 32 24 21 12 21 12 9 2 1 5 21 28 33 36 36 35 36
27 30 35 36 30 27 26 22 18 15 7 2 3 12 23 30 33 35 37 40 36 37 37 33 30 36 34 31 30 27 20 10 11 6 4 5 12 16 27 33 32 35 37

GFSSE_925_spd_126.txt.gz
Wind_Speed
24 32 32 31 28 27 25 24 24 25 25 28 31 30 30 29 28 26 25 24 22 20 18 17 15 14 13 13 11 10 11 13 13 14 19 17 16 16 19 22 20 19 20
34 36 33 32 29 27 26 25 24 25 27 28 31 30 29 28 27 26 25 23 22 20 18 17 16 15 14 14 14 13 13 14 14 14 16 15 17 16 17 21 18 18 19
35 37 34 33 31 28 26 25 25 26 27 28 29 29 28 27 26 25 24 23 21 20 18 16 16 15 15 14 14 13 13 14 15 14 14 13 18 16 17 19 19 20 19
39 39 36 33 31 30 27 25 25 25 26 27 28 27 27 26 25 24 23 22 20 19 18 16 15 16 15 13 13 15 15 15 15 14 15 15 17 17 18 18 18 19 19
41 39 37 34 32 30 28 26 26 25 26 26 27 26 26 26 25 24 22 21 20 18 17 16 16 16 16 16 16 16 15 15 14 14 12 16 16 16 17 17 17 17 17
40 39 36 33 31 30 29 28 27 27 26 27 27 26 25 25 24 23 22 21 19 17 17 18 18 17 17 16 16 16 15 14 14 14 13 15 15 16 16 17 17 18 17
41 38 35 33 31 29 29 29 28 27 27 27 27 26 25 25 24 23 22 21 19 17 17 18 18 17 16 17 16 15 15 13 12 13 12 13 13 16 16 17 18 16 16
40 37 35 32 30 29 28 30 29 28 28 27 27 26 25 25 24 22 21 20 18 17 17 18 18 17 16 16 16 14 13 12 11 12 12 12 12 14 15 18 18 17 15
35 35 35 33 31 30 28 29 29 29 28 28 28 27 26 24 23 22 21 19 18 17 17 18 18 17 16 15 15 14 12 11 8 10 12 11 13 14 15 18 19 19 16
32 34 34 32 31 32 31 29 28 28 28 28 28 27 26 24 23 22 21 20 18 17 16 17 17 16 16 15 15 14 12 10 7 10 11 10 13 14 15 17 17 18 13
30 32 32 32 31 30 31 30 28 27 28 28 27 27 26 25 24 23 22 21 19 17 16 16 16 14 15 15 14 13 13 11 10 11 12 11 12 13 15 17 17 14 13
29 33 33 31 30 27 27 32 31 29 28 28 28 28 27 26 25 24 22 21 19 18 16 16 15 14 14 16 16 15 13 12 12 13 14 13 13 14 15 14 15 14 14
36 34 34 32 30 29 25 27 28 30 31 30 30 30 28 27 26 24 23 22 21 20 19 17 16 16 14 15 17 17 14 13 13 14 14 14 15 16 15 18 16 14 14
38 40 34 33 32 31 28 26 25 29 31 32 32 31 31 30 28 26 26 25 24 23 21 21 19 17 15 14 16 16 15 15 14 16 15 16 16 17 19 21 18 17 16
24 32 39 37 36 33 31 26 28 27 27 28 30 33 32 30 31 29 27 27 26 24 23 22 21 20 17 16 16 16 15 16 15 15 17 17 17 19 20 22 19 17 18
28 33 37 43 42 38 35 31 27 26 30 28 29 34 33 31 28 30 29 28 28 26 24 23 22 21 19 17 18 17 16 16 16 16 18 18 18 19 19 20 21 21 21
36 35 40 43 42 43 40 37 33 29 28 31 31 29 34 31 28 28 30 29 28 26 24 24 22 21 19 19 19 18 17 17 17 16 18 19 21 20 21 19 20 23 23
32 32 43 40 44 44 45 42 39 37 33 30 29 30 29 30 29 27 28 29 27 26 25 24 24 22 21 20 20 18 18 17 17 18 19 20 22 22 22 20 20 22 26
38 35 37 42 44 48 45 41 40 40 36 33 30 29 28 28 29 27 26 27 25 26 26 25 25 24 23 21 20 18 18 18 16 17 20 22 22 23 24 23 22 20 19
36 40 42 42 44 45 35 33 33 34 36 35 34 33 32 31 29 28 27 26 25 27 26 26 26 25 24 24 20 19 19 19 17 17 17 21 24 23 23 24 24 21 14
35 38 40 40 42 34 32 32 28 32 35 38 37 36 33 33 30 29 28 27 27 29 28 27 27 25 24 21 15 13 15 20 21 19 20 20 23 25 25 25 25 23 21
39 38 39 41 40 41 36 35 26 30 29 29 35 36 31 32 31 31 31 29 30 30 29 28 28 21 20 23 9 6 2 5 16 22 23 21 22 23 25 27 27 26 25
29 37 37 39 38 41 36 29 22 20 16 22 29 33 34 33 32 33 32 31 32 32 32 32 30 28 18 23 24 8 2 4 2 10 20 23 25 26 27 27 30 29 29
9 14 17 21 24 29 31 31 30 23 18 21 25 26 33 35 34 34 34 30 34 34 34 32 31 33 28 18 22 28 11 7 3 2 8 16 22 23 25 26 28 31 32
22 23 20 22 20 20 25 29 28 24 23 18 18 18 10 19 29 29 31 31 34 35 35 36 34 32 34 26 23 17 20 11 7 3 2 5 14 23 27 28 30 31 35
27 29 28 30 26 23 23 21 21 17 15 17 17 12 17 14 26 28 28 33 37 37 36 36 35 32 33 31 31 29 24 12 8 6 2 4 10 12 24 27 30 31 34

GFSSE_925_spd_132.txt.gz
Wind_Speed
18 25 33 31 31 28 24 22 23 28 30 28 27 26 26 26 25 25 25 24 22 21 17 18 16 15 14 14 11 11 12 11 11 14 15 16 14 14 16 15 15 17 17
19 25 34 33 32 29 25 23 24 29 29 29 28 28 27 26 25 25 25 23 23 21 18 17 16 15 16 12 10 13 14 14 15 14 15 15 13 13 19 12 14 16 19
23 26 33 33 32 30 27 24 24 29 29 28 30 29 27 26 25 25 24 22 22 20 17 16 15 15 14 13 14 15 15 16 17 15 12 11 10 12 16 14 14 15 18
23 26 28 34 33 30 28 26 25 27 30 30 30 29 27 26 25 25 24 22 21 20 18 17 16 16 15 15 15 15 15 14 14 13 11 10 11 12 12 13 14 16 17
22 24 25 34 33 32 29 27 26 27 29 30 30 28 27 26 25 25 24 22 20 18 17 16 16 16 16 15 15 14 15 14 14 9 9 9 10 10 12 13 13 16 17
22 24 26 34 33 31 30 28 27 28 29 30 30 28 27 26 25 25 23 21 20 18 16 16 16 15 15 15 15 15 14 14 11 8 9 10 10 12 13 15 16 16 16
21 22 25 34 33 31 29 29 27 28 30 30 30 29 28 26 25 25 23 21 20 18 17 16 16 16 16 16 15 14 14 14 7 8 8 8 9 13 14 15 15 17 17
15 18 21 33 31 30 29 29 29 29 30 30 29 29 28 27 26 24 23 22 20 19 18 17 17 17 16 16 15 14 14 12 8 7 7 8 11 13 16 16 16 17 18
13 15 19 23 29 29 29 29 29 30 30 30 29 29 29 28 26 25 23 22 20 19 19 19 18 17 16 15 15 14 12 11 7 7 7 7 12 13 16 17 16 17 18
14 18 19 22 22 23 26 28 28 29 30 30 29 29 28 27 26 25 24 22 21 20 20 19 18 17 17 15 14 13 12 10 5 6 6 5 10 12 14 17 17 17 16
14 18 20 22 22 22 21 25 28 29 30 30 29 28 27 21 22 23 22 22 21 20 20 18 18 17 16 14 13 12 10 6 5 5 6 6 11 11 13 16 18 16 14
17 20 22 22 23 23 22 23 25 25 25 25 25 24 24 21 21 20 20 21 20 20 19 18 17 16 15 12 12 12 8 5 6 5 5 7 12 10 12 15 19 17 13
15 20 22 22 22 24 23 23 26 26 26 26 26 25 24 22 21 21 19 20 17 19 17 17 16 14 13 12 12 11 9 8 6 6 6 8 11 10 11 17 19 16 18
14 21 24 24 25 26 24 25 25 27 28 28 28 27 27 24 23 23 21 22 20 19 18 18 16 15 13 13 12 11 10 8 7 6 6 10 11 11 12 16 17 17 19
20 21 26 27 27 27 27 25 27 28 29 28 28 29 28 27 25 24 22 21 21 20 19 19 17 16 15 13 12 12 11 10 8 7 7 10 13 13 13 14 18 18 19
22 21 25 29 29 28 28 26 27 28 28 28 28 28 31 27 25 24 22 22 21 21 19 18 17 16 15 14 13 12 12 11 9 9 9 9 12 14 15 15 16 18 19
23 23 26 30 31 30 30 29 27 26 25 29 27 28 30 27 25 24 23 22 21 20 19 18 17 16 15 14 13 13 12 12 11 10 10 10 10 13 15 17 15 17 19
27 26 26 29 33 33 31 30 28 27 27 26 28 26 30 28 25 25 23 24 21 21 20 20 19 18 17 16 14 14 13 13 12 11 11 11 12 12 11 18 18 17 16
32 29 29 30 34 35 34 30 29 27 28 28 26 27 28 35 30 25 24 22 22 20 21 21 21 20 19 17 16 15 13 12 11 11 12 13 13 13 13 13 19 19 17
36 33 30 31 35 38 34 32 29 27 28 28 29 29 26 31 35 30 22 21 25 23 21 22 21 20 20 18 16 14 14 13 13 13 15 15 14 14 16 16 13 17 20
38 37 34 33 36 36 36 36 33 31 26 27 27 27 27 27 31 32 23 21 24 25 25 24 23 21 19 17 11 9 11 14 15 15 15 15 15 15 15 16 16 15 16
37 38 37 37 37 39 38 39 38 35 32 30 26 26 27 26 27 32 27 22 22 23 23 23 23 17 19 20 12 8 4 8 16 19 19 19 17 15 16 17 17 17 16
36 39 38 39 39 40 41 37 33 29 26 26 28 29 28 26 25 31 26 23 21 21 20 20 21 19 16 20 22 11 5 7 6 12 20 21 20 18 17 16 17 17 18
36 37 37 38 39 40 40 38 39 35 30 32 32 28 27 28 27 25 25 26 23 23 16 16 20 21 19 18 16 25 25 12 5 5 9 14 18 18 19 16 17 18 18
31 36 34 35 37 39 39 39 37 33 30 28 25 25 27 26 27 28 28 26 24 15 12 10 16 21 24 22 20 16 24 19 14 10 10 8 14 17 18 18 18 18 18
5 17 24 29 31 36 38 37 34 32 26 23 22 23 24 24 29 30 33 33 25 20 4 13 22 24 27 28 28 26 22 15 20 17 9 12 14 16 19 17 18 18 18

GFSSE_925_spd_135.txt.gz
Wind_Speed
13 22 29 28 26 23 21 18 19 22 22 21 20 19 19 19 19 20 20 19 18 16 14 14 12 10 11 10 9 8 8 9 10 14 15 16 14 16 16 15 12 14 14
12 20 28 28 27 24 21 19 19 22 23 22 21 20 20 20 20 20 20 18 17 15 14 14 13 11 12 10 8 9 10 11 13 14 14 14 13 16 15 14 12 14 14
10 19 30 29 28 26 23 21 21 22 24 22 22 21 21 21 20 20 19 18 17 15 14 13 12 12 11 9 10 11 11 13 13 14 12 10 10 11 11 12 11 12 15
12 18 26 32 30 27 24 22 22 24 24 23 23 22 22 21 21 20 19 18 17 14 13 12 12 12 11 11 12 11 11 12 10 10 7 8 11 11 10 10 12 13 15
15 18 24 33 31 28 25 23 23 25 25 24 24 24 23 22 21 20 18 17 16 14 13 12 12 12 12 11 11 11 10 9 9 11 9 9 10 8 10 12 12 12 15
13 15 22 32 31 29 26 24 23 25 26 25 26 25 24 23 22 21 19 17 16 15 13 12 12 12 11 11 11 10 10 10 6 6 7 10 8 11 11 12 14 14 15
11 14 16 29 30 29 26 24 24 25 27 28 28 27 24 23 23 21 19 17 16 15 14 13 13 12 12 11 11 10 10 7 5 3 6 8 10 11 13 13 13 15 15
10 12 11 28 29 28 26 25 25 25 27 28 29 27 25 24 22 22 20 19 16 15 14 13 13 13 13 12 10 9 10 6 2 5 5 9 7 10 13 14 14 15 16
8 11 11 19 26 27 26 26 25 26 28 28 28 27 26 24 23 22 20 19 17 15 14 14 14 13 13 12 10 10 9 7 2 7 6 8 10 9 12 14 14 15 18
9 12 13 18 19 20 23 25 25 25 28 28 28 27 26 25 23 21 20 18 17 15 15 15 14 13 13 11 11 10 8 8 2 3 5 7 8 10 10 14 15 16 17
7 13 17 18 20 20 19 22 25 25 27 28 27 26 25 20 21 20 18 17 17 16 15 15 14 13 12 11 10 9 9 7 3 4 7 4 8 10 11 12 16 18 16
8 14 19 21 23 23 22 20 22 22 23 23 22 23 21 20 20 19 19 18 17 15 16 15 15 14 12 8 8 10 8 8 4 3 4 4 7 9 10 13 16 16 13
15 14 21 23 23 25 24 23 23 23 23 24 24 24 24 23 23 22 20 17 15 16 14 15 15 13 13 13 13 9 9 4 7 5 6 3 8 9 10 13 15 16 12
21 14 19 24 25 25 25 25 25 26 26 26 27 27 27 26 24 23 21 20 20 18 17 16 14 14 14 12 9 10 10 8 8 7 8 5 10 11 10 12 14 16 14
23 22 17 24 26 26 26 25 25 28 29 28 29 30 29 28 25 24 22 22 22 20 20 19 17 16 17 13 12 11 11 10 8 7 7 6 10 12 12 12 15 19 17
23 24 21 23 26 28 29 26 26 26 26 29 29 31 32 28 27 26 23 23 23 23 20 20 18 15 15 16 14 13 13 13 12 10 9 9 9 12 15 15 14 17 18
25 24 27 21 26 31 31 31 27 28 29 30 29 28 32 30 25 28 26 25 23 23 21 23 21 18 17 15 17 15 13 13 12 10 11 9 11 10 14 16 16 17 20
29 27 25 25 28 31 32 31 31 30 32 29 30 28 30 31 26 27 27 27 26 28 26 21 20 19 18 16 15 14 14 14 14 12 12 13 11 8 11 16 17 18 18
29 31 30 30 24 32 33 32 32 31 32 31 28 28 30 36 30 27 26 25 22 22 25 25 21 22 21 18 16 13 14 14 15 13 15 13 14 11 11 11 14 20 20
30 32 32 32 33 32 33 33 33 31 32 31 32 33 27 35 35 29 27 23 25 21 23 24 23 22 21 18 17 15 15 13 15 16 16 15 15 16 17 11 14 17 23
31 31 36 33 32 28 34 34 33 33 33 34 33 35 32 29 33 33 28 25 27 25 24 28 22 20 19 15 12 11 13 14 17 17 16 17 20 17 16 18 17 15 17
38 34 34 37 37 37 33 36 36 33 34 34 34 32 34 32 33 32 32 25 25 24 23 23 27 19 17 19 13 9 5 13 19 21 20 20 18 18 17 18 18 16 16
42 39 35 38 39 38 38 37 35 34 30 32 30 29 31 31 30 35 33 29 24 26 23 22 23 21 17 19 21 12 5 8 11 16 21 22 21 18 17 17 19 20 22
44 34 35 35 38 39 43 35 39 35 33 34 34 33 31 33 29 31 32 33 26 24 21 19 22 23 20 18 16 26 24 19 4 3 11 14 20 19 18 21 20 18 20
37 39 27 33 36 38 43 40 38 39 36 32 33 35 33 33 32 31 30 30 27 21 23 17 18 18 19 18 15 15 23 22 20 10 8 7 15 19 21 20 19 20 20
35 35 33 30 32 37 44 40 44 41 34 32 32 31 34 30 33 32 31 31 30 29 28 28 25 13 18 23 27 27 20 11 14 15 10 13 15 19 22 22 27 24 21